IT9IJI-13 Weather Reports


Display with metric or nautical units.
time (UTC)temp
F
wind
direction
speed
MPH
gust
MPH
rain 1hr
in
rain 24hr
in
rain mn
in
humidity
%
barometer
mb
20260506051403 64 90 0.0 3.0 0.00 0.00 0.00 81 1015.2
20260506051303 64 90 0.0 3.0 0.00 0.00 0.00 81 1015.2
20260506051203 64 90 0.0 3.0 0.00 0.00 0.00 81 1015.2
20260506051103 64 90 0.0 3.0 0.00 0.00 0.00 81 1015.2
20260506051004 64 0 0.0 0.0 0.00 0.00 0.00 81 1015.1
20260506050904 64 0 0.0 0.0 0.00 0.00 0.00 81 1015.2
20260506050804 64 0 0.0 0.0 0.00 0.00 0.00 81 1015.1
20260506050704 64 112 0.0 2.0 0.00 0.00 0.00 81 1015.2
20260506050604 64 112 0.0 2.0 0.00 0.00 0.00 81 1015.1
20260506050504 64 112 0.0 2.0 0.00 0.00 0.00 81 1015.2
20260506050404 64 112 0.0 3.0 0.00 0.00 0.00 81 1015.2
20260506050304 64 109 0.0 4.0 0.00 0.00 0.00 81 1015.1
20260506050204 64 109 0.0 4.0 0.00 0.00 0.00 81 1015.1
20260506050104 64 109 0.0 4.0 0.00 0.00 0.00 81 1015.1
20260506045104 64 112 0.0 2.0 0.00 0.00 0.00 82 1015.1
20260506045004 64 112 0.0 2.0 0.00 0.00 0.00 82 1015.2
20260506044904 64 112 0.0 2.0 0.00 0.00 0.00 82 1015.1
20260506044804 64 112 0.0 2.0 0.00 0.00 0.00 82 1015.2
20260506044704 64 112 0.0 2.0 0.00 0.00 0.00 82 1015.2
20260506044604 64 112 0.0 2.0 0.00 0.00 0.00 82 1015.2
20260506044504 64 115 0.0 2.0 0.00 0.00 0.00 82 1015.2
20260506044404 64 118 0.0 2.0 0.00 0.00 0.00 82 1015.2
20260506044304 64 118 0.0 2.0 0.00 0.00 0.00 82 1015.2
20260506044204 64 119 0.0 2.0 0.00 0.00 0.00 82 1015.2
20260506044104 64 126 0.0 2.0 0.00 0.00 0.00 82 1015.2
20260506044004 64 126 0.0 2.0 0.00 0.00 0.00 82 1015.2
20260506043904 64 126 0.0 2.0 0.00 0.00 0.00 82 1015.2
20260506043804 64 126 0.0 2.0 0.00 0.00 0.00 82 1015.2
20260506043704 64 127 0.0 2.0 0.00 0.00 0.00 82 1015.2
20260506043604 64 127 0.0 2.0 0.00 0.00 0.00 82 1015.2
20260506043504 63 135 0.0 2.0 0.00 0.00 0.00 82 1015.1
20260506043404 64 0 0.0 0.0 0.00 0.00 0.00 82 1015.1
20260506043304 63 0 0.0 0.0 0.00 0.00 0.00 82 1015.1
20260506043204 63 0 0.0 0.0 0.00 0.00 0.00 82 1015.1
20260506043104 63 0 0.0 0.0 0.00 0.00 0.00 82 1015.1
20260506043003 63 0 0.0 0.0 0.00 0.00 0.00 82 1015.1
20260506042903 63 112 0.0 1.0 0.00 0.00 0.00 82 1015.1
20260506042804 63 112 0.0 1.0 0.00 0.00 0.00 82 1015.1
20260506042704 63 112 0.0 1.0 0.00 0.00 0.00 82 1015.1
20260506042603 63 112 0.0 1.0 0.00 0.00 0.00 82 1015.1
20260506042503 63 112 0.0 1.0 0.00 0.00 0.00 82 1015.1
20260506042403 63 112 0.0 1.0 0.00 0.00 0.00 82 1015.1
20260506042305 63 112 0.0 1.0 0.00 0.00 0.00 82 1015.2
20260506042204 63 102 0.0 1.0 0.00 0.00 0.00 82 1015.2
20260506042103 63 96 0.0 2.0 0.00 0.00 0.00 82 1015.1
20260506042003 63 96 0.0 2.0 0.00 0.00 0.00 82 1015.1
20260506041903 63 91 0.0 2.0 0.00 0.00 0.00 82 1015.1
20260506041803 63 91 0.0 2.0 0.00 0.00 0.00 82 1015.2
20260506041703 63 99 0.0 2.0 0.00 0.00 0.00 82 1015.1
20260506041603 63 99 0.0 2.0 0.00 0.00 0.00 82 1015.1
20260506041503 63 100 0.0 2.0 0.00 0.00 0.00 82 1015.1
20260506041403 63 100 0.0 2.0 0.00 0.00 0.00 82 1015.1
20260506041303 63 103 0.0 2.0 0.00 0.00 0.00 82 1015.1
20260506041203 63 106 0.0 2.0 0.00 0.00 0.00 82 1015.1
20260506041103 63 111 0.0 2.0 0.00 0.00 0.00 82 1015.1
20260506041003 63 111 0.0 2.0 0.00 0.00 0.00 82 1015.1
20260506040903 63 111 0.0 2.0 0.00 0.00 0.00 82 1015.1
20260506040803 63 112 0.0 2.0 0.00 0.00 0.00 82 1015.1
20260506040703 63 114 0.0 2.0 0.00 0.00 0.00 82 1015.0
20260506040603 63 114 0.0 2.0 0.00 0.00 0.00 82 1015.1
20260506040503 63 115 0.0 2.0 0.00 0.00 0.00 82 1015.1
20260506040403 63 115 0.0 2.0 0.00 0.00 0.00 82 1015.1
20260506040303 63 116 0.0 2.0 0.00 0.00 0.00 82 1015.0
20260506040203 63 117 0.0 2.0 0.00 0.00 0.00 82 1015.1
20260506040004 63 119 0.0 2.0 0.00 0.00 0.00 82 1015.1
20260506035903 63 119 0.0 2.0 0.00 0.00 0.00 81 1015.0
20260506035803 63 129 0.0 2.0 0.00 0.00 0.00 81 1015.1
20260506035703 63 0 0.0 0.0 0.00 0.00 0.00 81 1015.1
20260506035603 63 112 0.0 3.0 0.00 0.00 0.00 81 1015.0
20260506035503 63 112 0.0 3.0 0.00 0.00 0.00 81 1015.1
20260506035403 63 112 0.0 3.0 0.00 0.00 0.00 81 1015.1
20260506035306 63 110 0.0 3.0 0.00 0.00 0.00 81 1015.1
20260506035203 63 115 0.0 3.0 0.00 0.00 0.00 81 1015.1
20260506035103 63 115 0.0 3.0 0.00 0.00 0.00 81 1015.1
20260506035003 63 115 0.0 3.0 0.00 0.00 0.00 81 1015.1
20260506034903 63 115 0.0 3.0 0.00 0.00 0.00 81 1015.1
20260506034803 63 115 0.0 3.0 0.00 0.00 0.00 81 1015.0
20260506034703 63 115 0.0 3.0 0.00 0.00 0.00 81 1015.1
20260506034603 63 118 0.0 2.0 0.00 0.00 0.00 81 1015.0
20260506034503 63 118 0.0 2.0 0.00 0.00 0.00 81 1015.0
20260506034403 63 118 0.0 2.0 0.00 0.00 0.00 81 1014.9
20260506034303 63 121 0.0 2.0 0.00 0.00 0.00 81 1014.9
20260506034203 63 0 0.0 0.0 0.00 0.00 0.00 81 1014.9
20260506034103 63 0 0.0 0.0 0.00 0.00 0.00 81 1014.8
20260506034003 63 0 0.0 0.0 0.00 0.00 0.00 81 1014.8
20260506033903 63 0 0.0 0.0 0.00 0.00 0.00 81 1014.8
20260506033803 63 0 0.0 0.0 0.00 0.00 0.00 81 1014.9
20260506033703 63 112 0.0 1.0 0.00 0.00 0.00 81 1014.9
20260506033603 63 112 0.0 1.0 0.00 0.00 0.00 81 1015.0
20260506033503 63 112 0.0 1.0 0.00 0.00 0.00 81 1014.8
20260506033403 63 112 0.0 1.0 0.00 0.00 0.00 81 1014.8
20260506033303 63 98 0.0 1.0 0.00 0.00 0.00 81 1014.8
20260506033203 63 98 0.0 1.0 0.00 0.00 0.00 81 1014.9
20260506033103 63 98 0.0 1.0 0.00 0.00 0.00 81 1014.9
20260506033004 63 98 0.0 1.0 0.00 0.00 0.00 81 1014.8
20260506032903 63 87 0.0 1.0 0.00 0.00 0.00 81 1014.8
20260506032803 63 87 0.0 1.0 0.00 0.00 0.00 81 1014.9
20260506032703 63 80 0.0 1.0 0.00 0.00 0.00 81 1014.9
20260506032603 63 33 0.0 1.0 0.00 0.00 0.00 81 1014.8
20260506032503 63 33 0.0 1.0 0.00 0.00 0.00 81 1014.9
20260506032403 63 33 0.0 1.0 0.00 0.00 0.00 81 1015.0
20260506032305 63 67 0.0 1.0 0.00 0.00 0.00 81 1014.9
20260506032203 63 67 0.0 1.0 0.00 0.00 0.00 81 1014.9
20260506032103 63 87 0.0 1.0 0.00 0.00 0.00 81 1014.7
20260506032003 63 103 0.0 2.0 0.00 0.00 0.00 81 1014.8
20260506031903 63 112 0.0 2.0 0.00 0.00 0.00 81 1014.8
20260506031803 63 112 0.0 2.0 0.00 0.00 0.00 81 1014.8
20260506031703 63 112 0.0 2.0 0.00 0.00 0.00 81 1014.8
20260506031603 63 112 0.0 2.0 0.00 0.00 0.00 81 1014.8
20260506031503 63 112 0.0 2.0 0.00 0.00 0.00 81 1014.8
20260506031403 63 112 0.0 2.0 0.00 0.00 0.00 81 1014.7
20260506031303 63 112 0.0 2.0 0.00 0.00 0.00 81 1014.8
20260506031203 63 112 0.0 2.0 0.00 0.00 0.00 81 1014.8
20260506031103 63 112 0.0 2.0 0.00 0.00 0.00 81 1014.8
20260506031003 63 112 0.0 1.0 0.00 0.00 0.00 81 1014.8
20260506030903 63 112 0.0 1.0 0.00 0.00 0.00 81 1014.8
20260506030803 63 112 0.0 1.0 0.00 0.00 0.00 81 1014.7
20260506030703 63 0 0.0 0.0 0.00 0.00 0.00 81 1014.6
20260506030603 63 67 0.0 0.0 0.00 0.00 0.00 81 1014.7
20260506030503 63 86 0.0 1.0 0.00 0.00 0.00 81 1014.8
20260506030403 63 88 0.0 2.0 0.00 0.00 0.00 81 1014.8
20260506030303 63 88 0.0 2.0 0.00 0.00 0.00 81 1014.7
20260506030203 63 88 0.0 2.0 0.00 0.00 0.00 81 1014.8
20260506030103 63 98 0.0 2.0 0.00 0.00 0.00 81 1014.9
20260506030003 63 98 0.0 2.0 0.00 0.00 0.00 81 1014.9
20260506025903 63 98 0.0 2.0 0.00 0.00 0.00 81 1014.9
20260506025803 63 98 0.0 2.0 0.00 0.00 0.00 81 1014.9
20260506025704 63 98 0.0 2.0 0.00 0.00 0.00 81 1014.9
20260506025604 63 100 0.0 2.0 0.00 0.00 0.00 81 1014.9
20260506025504 63 104 0.0 2.0 0.00 0.00 0.00 81 1014.9
20260506025404 63 112 0.0 2.0 0.00 0.00 0.00 81 1014.8
20260506025305 63 112 0.0 2.0 0.00 0.00 0.00 81 1014.8
20260506025204 63 112 0.0 2.0 0.00 0.00 0.00 81 1014.9
20260506025104 63 112 0.0 2.0 0.00 0.00 0.00 81 1014.9
20260506025004 63 292 0.0 1.0 0.00 0.00 0.00 81 1014.9
20260506024904 63 292 0.0 1.0 0.00 0.00 0.00 81 1014.8
20260506024804 63 292 0.0 1.0 0.00 0.00 0.00 81 1014.9
20260506024704 63 292 0.0 1.0 0.00 0.00 0.00 81 1014.8
20260506024604 63 292 0.0 1.0 0.00 0.00 0.00 81 1014.8
20260506024504 63 112 0.0 2.0 0.00 0.00 0.00 81 1014.8
20260506024404 63 112 0.0 3.0 0.00 0.00 0.00 81 1014.8
20260506024304 63 112 0.0 3.0 0.00 0.00 0.00 80 1014.8
20260506024204 63 112 0.0 3.0 0.00 0.00 0.00 80 1014.7
20260506024104 63 112 0.0 3.0 0.00 0.00 0.00 80 1014.8
20260506024004 63 112 0.0 3.0 0.00 0.00 0.00 80 1014.9
20260506023904 63 112 0.0 3.0 0.00 0.00 0.00 80 1014.8
20260506023804 63 112 0.0 3.0 0.00 0.00 0.00 80 1014.9
20260506023704 63 112 0.0 3.0 0.00 0.00 0.00 80 1014.8
20260506023604 63 112 0.0 3.0 0.00 0.00 0.00 80 1014.8
20260506023504 63 112 0.0 3.0 0.00 0.00 0.00 80 1014.8
20260506023404 63 112 0.0 1.0 0.00 0.00 0.00 80 1014.8
20260506023304 63 112 0.0 1.0 0.00 0.00 0.00 80 1014.8
20260506023204 63 112 0.0 1.0 0.00 0.00 0.00 80 1014.9
20260506023104 63 112 0.0 1.0 0.00 0.00 0.00 80 1014.9
20260506023004 63 112 0.0 1.0 0.00 0.00 0.00 80 1014.8
20260506022904 63 112 0.0 1.0 0.00 0.00 0.00 80 1014.9
20260506022804 63 112 0.0 1.0 0.00 0.00 0.00 80 1014.8
20260506022704 63 112 0.0 1.0 0.00 0.00 0.00 80 1014.8
20260506022604 63 112 0.0 1.0 0.00 0.00 0.00 80 1014.8
20260506022504 63 112 0.0 1.0 0.00 0.00 0.00 80 1014.9
20260506022404 63 112 0.0 1.0 0.00 0.00 0.00 80 1014.9
20260506022305 63 112 0.0 1.0 0.00 0.00 0.00 80 1014.9
20260506022204 63 112 0.0 2.0 0.00 0.00 0.00 80 1014.8
20260506022104 63 112 0.0 2.0 0.00 0.00 0.00 80 1014.8
20260506022004 63 112 0.0 2.0 0.00 0.00 0.00 80 1014.9
20260506021904 63 112 0.0 2.0 0.00 0.00 0.00 80 1014.8
20260506021804 63 112 0.0 2.0 0.00 0.00 0.00 80 1014.8
20260506021704 63 112 0.0 2.0 0.00 0.00 0.00 80 1014.9
20260506021603 63 112 0.0 2.0 0.00 0.00 0.00 80 1014.8
20260506021504 63 108 0.0 2.0 0.00 0.00 0.00 80 1014.9
20260506021404 63 111 0.0 2.0 0.00 0.00 0.00 80 1014.8
20260506021303 63 111 0.0 2.0 0.00 0.00 0.00 80 1014.9
20260506021203 64 106 0.0 2.0 0.00 0.00 0.00 80 1014.9
20260506021103 64 106 0.0 2.0 0.00 0.00 0.00 80 1014.9
20260506021003 64 106 0.0 2.0 0.00 0.00 0.00 80 1014.9
20260506020903 64 113 0.0 2.0 0.00 0.00 0.00 80 1014.9
20260506020803 64 113 0.0 2.0 0.00 0.00 0.00 80 1015.0
20260506020703 64 113 0.0 2.0 0.00 0.00 0.00 79 1015.0
20260506020603 64 113 0.0 2.0 0.00 0.00 0.00 80 1014.8
20260506020503 64 114 0.0 2.0 0.00 0.00 0.00 79 1014.9
20260506020403 64 115 0.0 2.0 0.00 0.00 0.00 79 1015.1
20260506020303 64 115 0.0 2.0 0.00 0.00 0.00 79 1014.9
20260506020203 64 119 0.0 2.0 0.00 0.00 0.00 79 1014.9
20260506020103 64 118 0.0 2.0 0.00 0.00 0.00 79 1015.1
20260506020004 64 118 0.0 2.0 0.00 0.00 0.00 79 1015.1
20260506015903 64 112 0.0 2.0 0.00 0.00 0.00 79 1015.1
20260506015803 64 112 0.0 2.0 0.00 0.00 0.00 79 1015.0
20260506015703 64 112 0.0 2.0 0.00 0.00 0.00 79 1015.1
20260506015603 64 108 0.0 6.0 0.00 0.00 0.00 79 1015.1
20260506015503 64 109 0.0 6.0 0.00 0.00 0.00 79 1015.2
20260506015403 64 109 0.0 6.0 0.00 0.00 0.00 79 1015.1
20260506015305 64 107 0.0 6.0 0.00 0.00 0.00 79 1015.0
20260506015203 64 105 0.0 6.0 0.00 0.00 0.00 79 1015.1
20260506015103 64 104 0.0 6.0 0.00 0.00 0.00 79 1015.1
20260506015003 64 104 0.0 6.0 0.00 0.00 0.00 79 1015.1
20260506014903 64 104 0.0 6.0 0.00 0.00 0.00 79 1015.1
20260506014803 64 112 0.0 6.0 0.00 0.00 0.00 79 1015.1
20260506014703 64 112 0.0 6.0 0.00 0.00 0.00 79 1015.2
20260506014603 64 114 0.0 6.0 0.00 0.00 0.00 79 1015.1
20260506014503 64 115 0.0 3.0 0.00 0.00 0.00 79 1015.1
20260506014403 64 115 0.0 3.0 0.00 0.00 0.00 79 1015.0
20260506014303 64 116 0.0 3.0 0.00 0.00 0.00 79 1015.1
20260506014203 64 116 0.0 3.0 0.00 0.00 0.00 79 1015.1
20260506014103 64 116 0.0 3.0 0.00 0.00 0.00 79 1015.1
20260506014003 64 113 0.0 3.0 0.00 0.00 0.00 79 1015.1
20260506013903 64 113 0.0 3.0 0.00 0.00 0.00 79 1015.1
20260506013803 64 109 0.0 3.0 0.00 0.00 0.00 79 1015.0
20260506013703 64 109 0.0 3.0 0.00 0.00 0.00 79 1015.1
20260506013603 64 107 0.0 3.0 0.00 0.00 0.00 79 1015.1
20260506013503 64 107 0.0 3.0 0.00 0.00 0.00 79 1015.1
20260506013403 64 108 0.0 3.0 0.00 0.00 0.00 79 1015.1
20260506013303 64 108 0.0 3.0 0.00 0.00 0.00 79 1015.1
20260506013203 64 106 0.0 3.0 0.00 0.00 0.00 79 1015.2
20260506013103 64 105 0.0 3.0 0.00 0.00 0.00 79 1015.1
20260506013003 64 112 0.0 2.0 0.00 0.00 0.00 79 1015.1
20260506012903 64 94 0.0 6.0 0.00 0.00 0.00 79 1015.1
20260506012803 64 96 0.0 6.0 0.00 0.00 0.00 79 1015.1
20260506012703 64 98 0.0 6.0 0.00 0.00 0.00 79 1015.1
20260506012603 64 98 0.0 6.0 0.00 0.00 0.00 79 1015.2
20260506012503 64 98 0.0 6.0 0.00 0.00 0.00 79 1015.2
20260506012403 64 96 0.0 6.0 0.00 0.00 0.00 80 1015.2
20260506012307 64 96 0.0 6.0 0.00 0.00 0.00 80 1015.2
20260506012203 64 96 0.0 6.0 0.00 0.00 0.00 80 1015.1
20260506012103 64 96 0.0 6.0 0.00 0.00 0.00 80 1015.2
20260506012003 64 94 0.0 6.0 0.00 0.00 0.00 80 1015.2
20260506011903 64 112 0.0 2.0 0.00 0.00 0.00 80 1015.2
20260506011803 64 112 0.0 2.0 0.00 0.00 0.00 80 1015.2
20260506011703 64 112 0.0 2.0 0.00 0.00 0.00 80 1015.3
20260506011603 64 112 0.0 2.0 0.00 0.00 0.00 80 1015.3
20260506011503 64 112 0.0 2.0 0.00 0.00 0.00 80 1015.3
20260506011403 64 112 0.0 2.0 0.00 0.00 0.00 80 1015.3
20260506011303 64 112 0.0 2.0 0.00 0.00 0.00 80 1015.3
20260506011203 64 112 0.0 2.0 0.00 0.00 0.00 80 1015.3
20260506011103 64 112 0.0 2.0 0.00 0.00 0.00 80 1015.3
20260506011003 64 112 0.0 2.0 0.00 0.00 0.00 80 1015.3
20260506010903 64 112 0.0 2.0 0.00 0.00 0.00 80 1015.3
20260506010803 64 107 0.0 2.0 0.00 0.00 0.00 80 1015.2
20260506010703 64 105 0.0 2.0 0.00 0.00 0.00 80 1015.2
20260506010603 64 101 0.0 2.0 0.00 0.00 0.00 80 1015.3
20260506010503 64 101 0.0 2.0 0.00 0.00 0.00 80 1015.2
20260506010403 64 107 0.0 2.0 0.00 0.00 0.00 80 1015.2
20260506010303 64 102 0.0 2.0 0.00 0.00 0.00 80 1015.2
20260506010203 64 315 0.0 2.0 0.00 0.00 0.00 80 1015.3
20260506010103 64 305 0.0 2.0 0.00 0.00 0.00 80 1015.3
20260506010003 64 305 0.0 2.0 0.00 0.00 0.00 80 1015.3
20260506005903 64 305 0.0 2.0 0.00 0.00 0.00 80 1015.3
20260506005803 64 124 0.0 1.0 0.00 0.00 0.00 80 1015.4
20260506005703 64 124 0.0 1.0 0.00 0.00 0.00 80 1015.3
20260506005603 64 114 0.0 3.0 0.00 0.00 0.00 80 1015.2
20260506005503 64 114 0.0 3.0 0.00 0.00 0.00 80 1015.3
20260506005403 64 110 0.0 3.0 0.00 0.00 0.00 80 1015.3
20260506005305 64 106 0.0 4.0 0.00 0.00 0.00 80 1015.3
20260506005203 64 106 0.0 4.0 0.00 0.00 0.00 80 1015.3
20260506005103 64 106 0.0 4.0 0.00 0.00 0.00 81 1015.3
20260506005003 64 107 0.0 4.0 0.00 0.00 0.00 81 1015.4
20260506004903 64 107 0.0 4.0 0.00 0.00 0.00 81 1015.4
20260506004803 64 108 0.0 4.0 0.00 0.00 0.00 81 1015.3
20260506004703 64 106 0.0 4.0 0.00 0.00 0.00 81 1015.4
20260506004603 64 109 0.0 4.0 0.00 0.00 0.00 81 1015.4
20260506004503 64 109 0.0 4.0 0.00 0.00 0.00 81 1015.4
20260506004403 64 109 0.0 4.0 0.00 0.00 0.00 81 1015.4
20260506004303 64 113 0.0 4.0 0.00 0.00 0.00 81 1015.5
20260506004203 64 113 0.0 4.0 0.00 0.00 0.00 81 1015.4
20260506004104 64 113 0.0 4.0 0.00 0.00 0.00 81 1015.5
20260506004004 64 113 0.0 4.0 0.00 0.00 0.00 81 1015.5
20260506003904 64 113 0.0 4.0 0.00 0.00 0.00 81 1015.5
20260506003804 64 113 0.0 4.0 0.00 0.00 0.00 81 1015.6
20260506003704 64 117 0.0 4.0 0.00 0.00 0.00 81 1015.5
20260506003604 64 112 0.0 2.0 0.00 0.00 0.00 81 1015.5
20260506003504 64 112 0.0 2.0 0.00 0.00 0.00 81 1015.4
20260506003404 64 112 0.0 2.0 0.00 0.00 0.00 81 1015.4
20260506003304 64 112 0.0 2.0 0.00 0.00 0.00 81 1015.4
20260506003204 64 0 0.0 0.0 0.00 0.00 0.00 81 1015.3
20260506003104 64 0 0.0 0.0 0.00 0.00 0.00 81 1015.4
20260506003004 64 0 0.0 0.0 0.00 0.00 0.00 81 1015.5
20260506002904 64 0 0.0 0.0 0.00 0.00 0.00 81 1015.6
20260506002804 64 270 0.0 2.0 0.00 0.00 0.00 81 1015.6
20260506002704 64 248 0.0 2.0 0.00 0.00 0.00 81 1015.6
20260506002604 64 248 0.0 2.0 0.00 0.00 0.00 81 1015.6
20260506002504 64 218 0.0 2.0 0.00 0.00 0.00 81 1015.7
20260506002404 64 118 0.0 4.0 0.00 0.00 0.00 81 1015.6
20260506002306 64 113 0.0 4.0 0.00 0.00 0.00 81 1015.7
20260506002204 64 113 0.0 4.0 0.00 0.00 0.00 81 1015.5
20260506002104 64 113 0.0 4.0 0.00 0.00 0.00 81 1015.6
20260506002004 64 113 0.0 4.0 0.00 0.00 0.00 81 1015.6
20260506001904 64 114 0.0 4.0 0.00 0.00 0.00 81 1015.6
20260506001804 64 112 0.0 4.0 0.00 0.00 0.00 81 1015.6
20260506001704 64 109 0.0 4.0 0.00 0.00 0.00 81 1015.6
20260506001604 64 109 0.0 4.0 0.00 0.00 0.00 81 1015.5
20260506001504 64 109 0.0 4.0 0.00 0.00 0.00 81 1015.6
20260506001404 64 108 0.0 3.0 0.00 0.00 0.00 80 1015.7
20260506001304 64 109 0.0 3.0 0.00 0.00 0.00 80 1015.6
20260506001204 64 109 0.0 3.0 0.00 0.00 0.00 80 1015.6
20260506001104 64 108 0.0 2.0 0.00 0.00 0.00 80 1015.5
20260506001004 64 108 0.0 2.0 0.00 0.00 0.00 80 1015.5
20260506000904 64 103 0.0 2.0 0.00 0.00 0.00 80 1015.6
20260506000804 64 103 0.0 2.0 0.00 0.00 0.00 80 1015.5
20260506000704 64 112 0.0 1.0 0.00 0.00 0.00 80 1015.6
20260506000604 64 0 0.0 0.0 0.00 0.00 0.00 80 1015.5
20260506000504 64 0 0.0 0.0 0.00 0.00 0.00 80 1015.6
20260506000404 64 0 0.0 0.0 0.00 0.00 0.00 80 1015.6
20260506000304 64 0 0.0 0.0 0.00 0.00 0.00 80 1015.6
20260506000205 64 0 0.0 0.0 0.00 0.00 0.00 80 1015.6
20260506000104 64 0 0.0 0.0 0.00 0.00 0.00 80 1015.5
20260506000004 64 0 0.0 0.0 0.00 0.00 0.00 80 1015.5
20260505235903 64 0 0.0 0.0 0.00 0.00 0.00 80 1015.5
20260505235804 64 0 0.0 0.0 0.00 0.00 0.00 80 1015.7
20260505235703 64 0 0.0 0.0 0.00 0.00 0.00 80 1015.6
20260505235604 64 0 0.0 0.0 0.00 0.00 0.00 80 1015.5
20260505235503 64 0 0.0 0.0 0.00 0.00 0.00 80 1015.5
20260505235404 64 0 0.0 0.0 0.00 0.00 0.00 80 1015.6
20260505235305 64 0 0.0 0.0 0.00 0.00 0.00 80 1015.5
20260505235203 64 0 0.0 0.0 0.00 0.00 0.00 80 1015.5
20260505235104 64 112 0.0 3.0 0.00 0.00 0.00 80 1015.5
20260505235003 64 112 0.0 3.0 0.00 0.00 0.00 80 1015.5
20260505234903 64 112 0.0 3.0 0.00 0.00 0.00 80 1015.6
20260505234803 64 112 0.0 3.0 0.00 0.00 0.00 80 1015.6
20260505234703 64 112 0.0 3.0 0.00 0.00 0.00 80 1015.6
20260505234603 64 112 0.0 3.0 0.00 0.00 0.00 80 1015.5
20260505234503 64 112 0.0 3.0 0.00 0.00 0.00 80 1015.5
20260505234403 64 112 0.0 3.0 0.00 0.00 0.00 80 1015.6
20260505234303 64 116 0.0 3.0 0.00 0.00 0.00 80 1015.7
20260505234203 64 114 0.0 4.0 0.00 0.00 0.00 80 1015.7
20260505234103 64 113 0.0 4.0 0.00 0.00 0.00 80 1015.6
20260505234003 64 113 0.0 4.0 0.00 0.00 0.00 80 1015.6
20260505233903 64 109 0.0 4.0 0.00 0.00 0.00 80 1015.6
20260505233803 64 109 0.0 4.0 0.00 0.00 0.00 80 1015.7
20260505233703 64 109 0.0 4.0 0.00 0.00 0.00 80 1015.8
20260505233603 64 109 0.0 4.0 0.00 0.00 0.00 80 1015.8
20260505233503 64 109 0.0 4.0 0.00 0.00 0.00 80 1015.8
20260505233403 64 109 0.0 4.0 0.00 0.00 0.00 80 1015.7
20260505233303 64 110 0.0 4.0 0.00 0.00 0.00 80 1015.7
20260505233203 64 103 0.0 2.0 0.00 0.00 0.00 80 1015.8
20260505233103 64 103 0.0 2.0 0.00 0.00 0.00 80 1015.8
20260505233003 64 99 0.0 2.0 0.00 0.00 0.00 80 1015.7
20260505232903 64 112 0.0 2.0 0.00 0.00 0.00 80 1015.8
20260505232803 64 112 0.0 2.0 0.00 0.00 0.00 80 1015.8
20260505232703 64 111 0.0 2.0 0.00 0.00 0.00 80 1015.8
20260505232603 64 111 0.0 2.0 0.00 0.00 0.00 80 1015.8
20260505232503 64 111 0.0 2.0 0.00 0.00 0.00 80 1015.7
20260505232403 64 111 0.0 2.0 0.00 0.00 0.00 80 1015.8
20260505232305 64 111 0.0 2.0 0.00 0.00 0.00 80 1015.8
20260505232203 64 111 0.0 3.0 0.00 0.00 0.00 80 1015.7
20260505232103 64 111 0.0 3.0 0.00 0.00 0.00 80 1015.7
20260505232003 64 111 0.0 3.0 0.00 0.00 0.00 80 1015.7
20260505231903 64 111 0.0 3.0 0.00 0.00 0.00 80 1015.7
20260505231803 64 111 0.0 3.0 0.00 0.00 0.00 80 1015.8
20260505231703 64 112 0.0 3.0 0.00 0.00 0.00 80 1015.8
20260505231603 64 112 0.0 3.0 0.00 0.00 0.00 80 1015.9
20260505231503 64 112 0.0 3.0 0.00 0.00 0.00 80 1015.9
20260505231403 64 106 0.0 5.0 0.00 0.00 0.00 80 1015.9
20260505231303 64 104 0.0 5.0 0.00 0.00 0.00 80 1015.9
20260505231204 64 98 0.0 5.0 0.00 0.00 0.00 80 1015.9
20260505231004 64 112 0.0 5.0 0.00 0.00 0.00 80 1015.9
20260505230904 64 112 0.0 5.0 0.00 0.00 0.00 80 1016.0
20260505230804 64 112 0.0 5.0 0.00 0.00 0.00 80 1016.0
20260505230704 64 112 0.0 5.0 0.00 0.00 0.00 80 1016.0
20260505230604 64 100 0.0 5.0 0.00 0.00 0.00 80 1016.0
20260505230504 64 101 0.0 5.0 0.00 0.00 0.00 80 1015.9
20260505230404 64 98 0.0 5.0 0.00 0.00 0.00 80 1016.1
20260505230304 64 87 0.0 4.0 0.00 0.00 0.00 80 1016.0
20260505230204 64 87 0.0 4.0 0.00 0.00 0.00 80 1016.1
20260505230104 64 87 0.0 4.0 0.00 0.00 0.00 80 1016.1
20260505230004 64 87 0.0 4.0 0.00 0.00 0.00 80 1016.1
20260505225904 64 87 0.0 4.0 0.00 0.00 0.00 80 1016.1
20260505225804 64 87 0.0 4.0 0.00 0.00 0.00 80 1016.1
20260505225704 64 96 0.0 4.0 0.00 0.00 0.00 80 1016.1
20260505225604 64 112 0.0 3.0 0.00 0.00 0.00 80 1016.1
20260505225504 64 112 0.0 4.0 0.00 0.00 0.00 80 1016.1
20260505225404 64 112 0.0 4.0 0.00 0.00 0.00 80 1016.2
20260505225305 64 112 0.0 4.0 0.00 0.00 0.00 80 1016.1
20260505225204 64 112 0.0 4.0 0.00 0.00 0.00 80 1016.1
20260505225104 64 112 0.0 4.0 0.00 0.00 0.00 80 1016.2
20260505225004 64 112 0.0 4.0 0.00 0.00 0.00 80 1016.2
20260505224904 64 112 0.0 4.0 0.00 0.00 0.00 80 1016.2
20260505224804 64 112 0.0 4.0 0.00 0.00 0.00 80 1016.2
20260505224703 64 112 0.0 4.0 0.00 0.00 0.00 80 1016.3
20260505224603 64 112 0.0 6.0 0.00 0.00 0.00 80 1016.3
20260505224504 64 112 0.0 6.0 0.00 0.00 0.00 80 1016.3
20260505224404 64 112 0.0 6.0 0.00 0.00 0.00 80 1016.3
20260505224304 64 112 0.0 6.0 0.00 0.00 0.00 80 1016.3
20260505224204 64 112 0.0 6.0 0.00 0.00 0.00 80 1016.3
20260505224103 64 112 0.0 6.0 0.00 0.00 0.00 80 1016.2
20260505224004 64 112 0.0 6.0 0.00 0.00 0.00 80 1016.3
20260505223904 64 112 0.0 6.0 0.00 0.00 0.00 80 1016.3
20260505223803 64 112 0.0 6.0 0.00 0.00 0.00 80 1016.3
20260505223703 64 112 0.0 6.0 0.00 0.00 0.00 80 1016.3
20260505223603 64 112 0.0 4.0 0.00 0.00 0.00 80 1016.3
20260505223503 64 112 0.0 4.0 0.00 0.00 0.00 80 1016.4
20260505223403 64 112 0.0 4.0 0.00 0.00 0.00 80 1016.4
20260505223303 64 112 0.0 4.0 0.00 0.00 0.00 80 1016.4
20260505223203 64 0 0.0 0.0 0.00 0.00 0.00 80 1016.4
20260505223103 64 0 0.0 0.0 0.00 0.00 0.00 80 1016.4
20260505223003 64 0 0.0 0.0 0.00 0.00 0.00 80 1016.4
20260505222903 64 0 0.0 0.0 0.00 0.00 0.00 80 1016.4
20260505222803 64 0 0.0 0.0 0.00 0.00 0.00 80 1016.3
20260505222703 64 0 0.0 0.0 0.00 0.00 0.00 80 1016.4
20260505222603 64 0 0.0 0.0 0.00 0.00 0.00 80 1016.4
20260505222503 64 112 0.0 0.0 0.00 0.00 0.00 80 1016.4
20260505222403 64 112 0.0 0.0 0.00 0.00 0.00 80 1016.5
20260505222305 64 112 0.0 2.0 0.00 0.00 0.00 80 1016.5
20260505222203 64 120 0.0 4.0 0.00 0.00 0.00 80 1016.4
20260505222103 64 120 0.0 4.0 0.00 0.00 0.00 80 1016.4
20260505222003 64 120 0.0 4.0 0.00 0.00 0.00 80 1016.4
20260505221903 64 120 0.0 4.0 0.00 0.00 0.00 80 1016.5
20260505221803 64 120 0.0 4.0 0.00 0.00 0.00 80 1016.5
20260505221703 64 120 0.0 4.0 0.00 0.00 0.00 80 1016.5
20260505221604 64 118 0.0 4.0 0.00 0.00 0.00 80 1016.5
20260505221503 64 118 0.0 4.0 0.00 0.00 0.00 80 1016.5
20260505221403 64 118 0.0 4.0 0.00 0.00 0.00 80 1016.5
20260505221303 64 118 0.0 4.0 0.00 0.00 0.00 80 1016.5
20260505221203 64 108 0.0 4.0 0.00 0.00 0.00 80 1016.5
20260505221103 64 108 0.0 4.0 0.00 0.00 0.00 80 1016.4
20260505221003 64 108 0.0 4.0 0.00 0.00 0.00 80 1016.4
20260505220903 64 108 0.0 4.0 0.00 0.00 0.00 80 1016.4
20260505220803 64 108 0.0 4.0 0.00 0.00 0.00 80 1016.4
20260505220703 64 108 0.0 4.0 0.00 0.00 0.00 80 1016.6
20260505220603 64 112 0.0 4.0 0.00 0.00 0.00 80 1016.5
20260505220503 64 112 0.0 4.0 0.00 0.00 0.00 80 1016.4
20260505220403 64 112 0.0 4.0 0.00 0.00 0.00 80 1016.5
20260505220303 64 112 0.0 1.0 0.00 0.00 0.00 80 1016.5
20260505220203 64 112 0.0 1.0 0.00 0.00 0.00 80 1016.5
20260505220103 64 0 0.0 0.0 0.00 0.00 0.00 80 1016.5
20260505220039 64 0 0.0 0.0 0.00 0.00 0.00 80 1016.5
20260505215903 64 0 0.0 0.0 0.00 0.00 0.00 79 1016.6
20260505215803 64 0 0.0 0.0 0.00 0.00 0.00 80 1016.5
20260505215703 64 0 0.0 0.0 0.00 0.00 0.00 80 1016.5
20260505215603 64 0 0.0 0.0 0.00 0.00 0.00 80 1016.6
20260505215503 64 0 0.0 0.0 0.00 0.00 0.00 79 1016.6
20260505215403 64 0 0.0 0.0 0.00 0.00 0.00 79 1016.7
20260505215305 64 0 0.0 0.0 0.00 0.00 0.00 79 1016.7
20260505215203 64 90 0.0 3.0 0.00 0.00 0.00 79 1016.6
20260505215103 64 90 0.0 3.0 0.00 0.00 0.00 79 1016.8
20260505215003 64 90 0.0 3.0 0.00 0.00 0.00 79 1016.8
20260505214903 64 90 0.0 3.0 0.00 0.00 0.00 79 1016.8
20260505214803 64 90 0.0 3.0 0.00 0.00 0.00 79 1016.7
20260505214703 64 90 0.0 3.0 0.00 0.00 0.00 79 1016.6
20260505214603 64 90 0.0 3.0 0.00 0.00 0.00 79 1016.7
20260505214503 64 90 0.0 3.0 0.00 0.00 0.00 79 1016.6
20260505214403 64 90 0.0 3.0 0.00 0.00 0.00 79 1016.8
20260505214303 64 90 0.0 3.0 0.00 0.00 0.00 79 1016.8
20260505214203 64 90 0.0 1.0 0.00 0.00 0.00 79 1016.8
20260505214103 64 90 0.0 1.0 0.00 0.00 0.00 79 1016.7
20260505214003 64 90 0.0 1.0 0.00 0.00 0.00 79 1016.8
20260505213903 64 90 0.0 1.0 0.00 0.00 0.00 79 1016.8
20260505213803 64 112 0.0 2.0 0.00 0.00 0.00 79 1016.7
20260505213703 64 112 0.0 2.0 0.00 0.00 0.00 79 1016.7
20260505213603 64 93 0.0 3.0 0.00 0.00 0.00 79 1016.7
20260505213503 64 93 0.0 3.0 0.00 0.00 0.00 79 1016.7
20260505213403 64 93 0.0 3.0 0.00 0.00 0.00 79 1016.7
20260505213303 64 92 0.0 3.0 0.00 0.00 0.00 79 1016.7
20260505213203 64 92 0.0 3.0 0.00 0.00 0.00 79 1016.8
20260505213103 64 98 0.0 3.0 0.00 0.00 0.00 79 1016.7
20260505213003 64 99 0.0 3.0 0.00 0.00 0.00 79 1016.6
20260505212903 64 102 0.0 3.0 0.00 0.00 0.00 79 1016.7
20260505212803 64 103 0.0 3.0 0.00 0.00 0.00 79 1016.8
20260505212703 64 102 0.0 3.0 0.00 0.00 0.00 79 1016.7
20260505212603 64 110 0.0 2.0 0.00 0.00 0.00 79 1016.8
20260505212503 64 110 0.0 2.0 0.00 0.00 0.00 79 1016.7
20260505212403 64 110 0.0 2.0 0.00 0.00 0.00 79 1016.6
20260505212305 64 115 0.0 2.0 0.00 0.00 0.00 79 1016.7
20260505212203 64 115 0.0 2.0 0.00 0.00 0.00 79 1016.6
20260505212103 64 118 0.0 2.0 0.00 0.00 0.00 79 1016.6
20260505212003 64 125 0.0 2.0 0.00 0.00 0.00 79 1016.8
20260505211903 64 112 0.0 2.0 0.00 0.00 0.00 79 1016.7
20260505211803 64 112 0.0 3.0 0.00 0.00 0.00 79 1016.8
20260505211703 64 112 0.0 3.0 0.00 0.00 0.00 79 1016.8
20260505211603 64 112 0.0 3.0 0.00 0.00 0.00 79 1016.7
20260505211503 64 112 0.0 3.0 0.00 0.00 0.00 79 1016.6
20260505211403 64 112 0.0 3.0 0.00 0.00 0.00 79 1016.7
20260505211303 64 112 0.0 3.0 0.00 0.00 0.00 79 1016.7
20260505211203 64 112 0.0 3.0 0.00 0.00 0.00 79 1016.6
20260505211103 64 112 0.0 3.0 0.00 0.00 0.00 79 1016.6
20260505211003 64 112 0.0 3.0 0.00 0.00 0.00 79 1016.6
20260505210903 64 112 0.0 3.0 0.00 0.00 0.00 79 1016.7
20260505210803 64 112 0.0 1.0 0.00 0.00 0.00 79 1016.8
20260505210703 64 112 0.0 2.0 0.00 0.00 0.00 79 1016.6
20260505210603 64 112 0.0 2.0 0.00 0.00 0.00 79 1016.7
20260505210503 64 112 0.0 2.0 0.00 0.00 0.00 79 1016.6
20260505210404 64 112 0.0 2.0 0.00 0.00 0.00 79 1016.6
20260505210303 64 112 0.0 2.0 0.00 0.00 0.00 79 1016.6
20260505210203 64 112 0.0 2.0 0.00 0.00 0.00 79 1016.6
20260505210003 64 112 0.0 2.0 0.00 0.00 0.00 79 1016.6
20260505205903 64 112 0.0 2.0 0.00 0.00 0.00 79 1016.6
20260505205803 64 112 0.0 2.0 0.00 0.00 0.00 79 1016.6
20260505205704 64 112 0.0 1.0 0.00 0.00 0.00 79 1016.7
20260505205604 64 112 0.0 1.0 0.00 0.00 0.00 79 1016.7
20260505205504 64 112 0.0 1.0 0.00 0.00 0.00 79 1016.7
20260505205404 64 112 0.0 1.0 0.00 0.00 0.00 79 1016.7
20260505205305 64 112 0.0 1.0 0.00 0.00 0.00 79 1016.8
20260505205204 64 120 0.0 2.0 0.00 0.00 0.00 79 1016.8
20260505205104 64 120 0.0 2.0 0.00 0.00 0.00 79 1016.8
20260505205004 64 120 0.0 2.0 0.00 0.00 0.00 79 1016.7
20260505204904 64 120 0.0 2.0 0.00 0.00 0.00 79 1016.8
20260505204804 64 120 0.0 2.0 0.00 0.00 0.00 79 1016.8
20260505204704 64 120 0.0 2.0 0.00 0.00 0.00 79 1016.8
20260505204604 64 120 0.0 2.0 0.00 0.00 0.00 79 1016.7
20260505204504 64 120 0.0 2.0 0.00 0.00 0.00 79 1016.7
20260505204404 64 115 0.0 3.0 0.00 0.00 0.00 79 1016.8
20260505204304 64 115 0.0 3.0 0.00 0.00 0.00 79 1016.8
20260505204204 64 112 0.0 3.0 0.00 0.00 0.00 79 1016.8
20260505204104 64 112 0.0 3.0 0.00 0.00 0.00 79 1016.8
20260505204004 64 112 0.0 3.0 0.00 0.00 0.00 79 1016.8
20260505203904 64 112 0.0 3.0 0.00 0.00 0.00 79 1016.8
20260505203804 64 112 0.0 3.0 0.00 0.00 0.00 79 1016.8
20260505203704 64 112 0.0 3.0 0.00 0.00 0.00 79 1016.8
20260505203604 64 112 0.0 3.0 0.00 0.00 0.00 79 1016.8
20260505203504 64 112 0.0 3.0 0.00 0.00 0.00 79 1016.8
20260505203404 64 112 0.0 2.0 0.00 0.00 0.00 79 1016.8
20260505203304 64 112 0.0 2.0 0.00 0.00 0.00 79 1016.8
20260505203204 64 112 0.0 2.0 0.00 0.00 0.00 79 1016.8
20260505203104 64 112 0.0 2.0 0.00 0.00 0.00 79 1016.8
20260505203004 64 112 0.0 2.0 0.00 0.00 0.00 79 1016.9
20260505202904 64 112 0.0 2.0 0.00 0.00 0.00 79 1016.9
20260505202804 64 112 0.0 2.0 0.00 0.00 0.00 79 1016.8
20260505202704 64 112 0.0 2.0 0.00 0.00 0.00 79 1016.8
20260505202604 64 112 0.0 2.0 0.00 0.00 0.00 79 1016.8
20260505202504 64 112 0.0 2.0 0.00 0.00 0.00 79 1016.9
20260505202404 64 112 0.0 2.0 0.00 0.00 0.00 79 1016.8
20260505202306 64 112 0.0 2.0 0.00 0.00 0.00 79 1016.9
20260505202204 64 112 0.0 2.0 0.00 0.00 0.00 79 1016.9
20260505202104 64 112 0.0 2.0 0.00 0.00 0.00 79 1016.8
20260505202004 64 112 0.0 2.0 0.00 0.00 0.00 79 1016.8
20260505201903 64 112 0.0 2.0 0.00 0.00 0.00 79 1016.8
20260505201804 64 112 0.0 2.0 0.00 0.00 0.00 79 1016.8
20260505201704 64 112 0.0 2.0 0.00 0.00 0.00 79 1016.8
20260505201604 64 112 0.0 2.0 0.00 0.00 0.00 79 1016.9
20260505201504 64 112 0.0 2.0 0.00 0.00 0.00 79 1016.8
20260505201404 65 112 0.0 2.0 0.00 0.00 0.00 79 1016.9
20260505201303 64 112 0.0 2.0 0.00 0.00 0.00 79 1016.8
20260505201203 64 112 0.0 1.0 0.00 0.00 0.00 79 1016.8
20260505201103 64 112 0.0 2.0 0.00 0.00 0.00 79 1016.9
20260505201003 64 112 0.0 2.0 0.00 0.00 0.00 79 1016.8
20260505200903 64 112 0.0 2.0 0.00 0.00 0.00 79 1016.9
20260505200803 64 112 0.0 2.0 0.00 0.00 0.00 79 1016.9
20260505200703 64 112 0.0 2.0 0.00 0.00 0.00 79 1016.9
20260505200603 65 112 0.0 2.0 0.00 0.00 0.00 79 1016.9
20260505200503 65 112 0.0 2.0 0.00 0.00 0.00 79 1016.9
20260505200403 65 112 0.0 2.0 0.00 0.00 0.00 79 1016.9
20260505200303 65 112 0.0 2.0 0.00 0.00 0.00 79 1016.8
20260505200203 65 112 0.0 2.0 0.00 0.00 0.00 79 1017.0
20260505200103 65 112 0.0 2.0 0.00 0.00 0.00 79 1017.0
20260505200003 65 112 0.0 2.0 0.00 0.00 0.00 79 1017.0
20260505195903 65 112 0.0 2.0 0.00 0.00 0.00 79 1017.1
20260505195803 65 112 0.0 2.0 0.00 0.00 0.00 79 1017.1
20260505195703 65 112 0.0 2.0 0.00 0.00 0.00 79 1017.2
20260505195603 65 112 0.0 4.0 0.00 0.00 0.00 79 1017.1
20260505195503 65 112 0.0 4.0 0.00 0.00 0.00 79 1017.1
20260505195403 65 111 0.0 4.0 0.00 0.00 0.00 78 1017.2
20260505195305 65 111 0.0 4.0 0.00 0.00 0.00 78 1017.2
20260505195203 65 111 0.0 4.0 0.00 0.00 0.00 78 1017.2
20260505195103 65 110 0.0 4.0 0.00 0.00 0.00 78 1017.2
20260505195003 65 110 0.0 4.0 0.00 0.00 0.00 78 1017.2
20260505194903 65 108 0.0 4.0 0.00 0.00 0.00 78 1017.2
20260505194803 65 108 0.0 4.0 0.00 0.00 0.00 78 1017.1
20260505194703 65 106 0.0 4.0 0.00 0.00 0.00 78 1017.2
20260505194603 65 90 0.0 1.0 0.00 0.00 0.00 78 1017.3
20260505194503 65 103 0.0 1.0 0.00 0.00 0.00 78 1017.2
20260505194403 65 107 0.0 1.0 0.00 0.00 0.00 78 1017.2
20260505194303 65 107 0.0 1.0 0.00 0.00 0.00 78 1017.2
20260505194203 65 107 0.0 1.0 0.00 0.00 0.00 78 1017.1
20260505194103 65 107 0.0 1.0 0.00 0.00 0.00 78 1017.2
20260505194003 65 107 0.0 1.0 0.00 0.00 0.00 78 1017.2
20260505193903 65 112 0.0 1.0 0.00 0.00 0.00 78 1017.2
20260505193803 65 112 0.0 1.0 0.00 0.00 0.00 78 1017.2
20260505193703 65 112 0.0 1.0 0.00 0.00 0.00 78 1017.2
20260505193603 65 112 0.0 1.0 0.00 0.00 0.00 78 1017.1
20260505193503 65 112 0.0 1.0 0.00 0.00 0.00 78 1017.2
20260505193403 65 112 0.0 1.0 0.00 0.00 0.00 78 1017.2
20260505193303 65 112 0.0 1.0 0.00 0.00 0.00 78 1017.2
20260505193203 65 112 0.0 1.0 0.00 0.00 0.00 78 1017.2
20260505193103 65 112 0.0 1.0 0.00 0.00 0.00 78 1017.2
20260505193003 65 112 0.0 1.0 0.00 0.00 0.00 78 1017.2
20260505192903 65 112 0.0 1.0 0.00 0.00 0.00 78 1017.2
20260505192803 65 112 0.0 1.0 0.00 0.00 0.00 78 1017.2
20260505192703 65 112 0.0 1.0 0.00 0.00 0.00 78 1017.2
20260505192603 65 112 0.0 1.0 0.00 0.00 0.00 78 1017.3
20260505192503 65 112 0.0 1.0 0.00 0.00 0.00 78 1017.3
20260505192403 65 112 0.0 1.0 0.00 0.00 0.00 77 1017.2
20260505192305 65 112 0.0 1.0 0.00 0.00 0.00 77 1017.3
20260505192203 65 112 0.0 1.0 0.00 0.00 0.00 77 1017.3
20260505192103 65 0 0.0 0.0 0.00 0.00 0.00 77 1017.2
20260505192003 65 0 0.0 0.0 0.00 0.00 0.00 77 1017.3
20260505191903 65 0 0.0 0.0 0.00 0.00 0.00 78 1017.3
20260505191803 65 0 0.0 0.0 0.00 0.00 0.00 78 1017.2
20260505191703 65 0 0.0 0.0 0.00 0.00 0.00 78 1017.2
20260505191603 65 0 0.0 0.0 0.00 0.00 0.00 78 1017.2
20260505191503 65 0 0.0 0.0 0.00 0.00 0.00 78 1017.2
20260505191403 65 0 0.0 0.0 0.00 0.00 0.00 78 1017.1
20260505191303 65 0 0.0 0.0 0.00 0.00 0.00 78 1017.2
20260505191203 65 112 0.0 1.0 0.00 0.00 0.00 78 1017.1
20260505191103 65 112 0.0 1.0 0.00 0.00 0.00 78 1017.1
20260505191003 65 112 0.0 1.0 0.00 0.00 0.00 78 1017.2
20260505190903 65 112 0.0 1.0 0.00 0.00 0.00 78 1017.1
20260505190803 65 112 0.0 1.0 0.00 0.00 0.00 78 1017.1
20260505190703 65 99 0.0 1.0 0.00 0.00 0.00 78 1017.1
20260505190603 65 108 0.0 2.0 0.00 0.00 0.00 77 1017.1
20260505190503 65 108 0.0 2.0 0.00 0.00 0.00 77 1017.0
20260505190403 65 108 0.0 2.0 0.00 0.00 0.00 77 1016.9
20260505190303 65 108 0.0 2.0 0.00 0.00 0.00 77 1016.9
20260505190204 65 106 0.0 2.0 0.00 0.00 0.00 77 1016.9
20260505190103 65 108 0.0 2.0 0.00 0.00 0.00 77 1016.9
20260505190003 65 108 0.0 2.0 0.00 0.00 0.00 77 1016.9
20260505185903 65 108 0.0 2.0 0.00 0.00 0.00 77 1016.9
20260505185803 65 108 0.0 2.0 0.00 0.00 0.00 77 1016.8
20260505185703 65 108 0.0 4.0 0.00 0.00 0.00 77 1016.8
20260505185603 65 108 0.0 4.0 0.00 0.00 0.00 77 1016.8
20260505185503 65 108 0.0 4.0 0.00 0.00 0.00 77 1016.7
20260505185403 65 108 0.0 4.0 0.00 0.00 0.00 77 1016.9
20260505185305 65 108 0.0 4.0 0.00 0.00 0.00 77 1016.8
20260505185203 65 107 0.0 4.0 0.00 0.00 0.00 77 1016.8
20260505185103 65 106 0.0 4.0 0.00 0.00 0.00 77 1016.8
20260505185003 65 106 0.0 4.0 0.00 0.00 0.00 77 1016.8
20260505184903 65 106 0.0 4.0 0.00 0.00 0.00 77 1016.8
20260505184803 65 106 0.0 4.0 0.00 0.00 0.00 77 1016.9
20260505184703 65 106 0.0 2.0 0.00 0.00 0.00 77 1016.9
20260505184603 65 106 0.0 2.0 0.00 0.00 0.00 77 1017.1
20260505184503 65 107 0.0 2.0 0.00 0.00 0.00 77 1016.9
20260505184403 65 106 0.0 2.0 0.00 0.00 0.00 77 1017.0
20260505184303 65 106 0.0 2.0 0.00 0.00 0.00 77 1017.1
20260505184203 65 106 0.0 2.0 0.00 0.00 0.00 77 1017.0
20260505184103 65 106 0.0 2.0 0.00 0.00 0.00 76 1017.0
20260505184003 65 106 0.0 2.0 0.00 0.00 0.00 76 1017.0
20260505183903 65 108 0.0 3.0 0.00 0.00 0.00 76 1017.0
20260505183803 65 109 0.0 3.0 0.00 0.00 0.00 76 1017.0
20260505183704 65 108 0.0 3.0 0.00 0.00 0.00 76 1017.1
20260505183604 65 108 0.0 3.0 0.00 0.00 0.00 76 1017.0
20260505183504 65 106 0.0 3.0 0.00 0.00 0.00 76 1017.0
20260505183404 65 106 0.0 3.0 0.00 0.00 0.00 76 1017.0
20260505183304 65 103 0.0 3.0 0.00 0.00 0.00 76 1016.9
20260505183204 65 104 0.0 3.0 0.00 0.00 0.00 76 1016.9
20260505183104 65 104 0.0 3.0 0.00 0.00 0.00 76 1016.9
20260505183004 65 104 0.0 3.0 0.00 0.00 0.00 76 1016.9
20260505182904 65 100 0.0 2.0 0.00 0.00 0.00 76 1016.9
20260505182804 65 99 0.0 2.0 0.00 0.00 0.00 75 1017.0
20260505182704 65 95 0.0 2.0 0.00 0.00 0.00 75 1017.0
20260505182604 65 95 0.0 2.0 0.00 0.00 0.00 75 1017.1
20260505182504 65 79 0.0 2.0 0.00 0.00 0.00 75 1017.0
20260505182404 65 79 0.0 2.0 0.00 0.00 0.00 75 1016.9
20260505182306 65 292 0.0 1.0 0.00 0.00 0.00 75 1017.0
20260505182204 65 292 0.0 2.0 0.00 0.00 0.00 75 1016.9
20260505182104 65 292 0.0 2.0 0.00 0.00 0.00 75 1016.9
20260505182004 65 292 0.0 2.0 0.00 0.00 0.00 75 1016.9
20260505181904 65 292 0.0 2.0 0.00 0.00 0.00 75 1016.8
20260505181804 65 292 0.0 2.0 0.00 0.00 0.00 75 1016.9
20260505181704 65 292 0.0 2.0 0.00 0.00 0.00 75 1017.0
20260505181604 65 292 0.0 2.0 0.00 0.00 0.00 75 1016.9
20260505181504 65 292 0.0 2.0 0.00 0.00 0.00 75 1016.9
20260505181404 65 292 0.0 2.0 0.00 0.00 0.00 75 1016.9
20260505181304 65 292 0.0 2.0 0.00 0.00 0.00 75 1016.8
20260505181204 66 0 0.0 0.0 0.00 0.00 0.00 74 1016.8
20260505181104 66 0 0.0 0.0 0.00 0.00 0.00 74 1016.8
20260505181004 66 0 0.0 0.0 0.00 0.00 0.00 74 1016.9
20260505180904 66 112 0.0 1.0 0.00 0.00 0.00 74 1016.8
20260505180804 66 112 0.0 1.0 0.00 0.00 0.00 74 1016.8
20260505180704 66 125 0.0 2.0 0.00 0.00 0.00 74 1016.8
20260505180604 66 125 0.0 2.0 0.00 0.00 0.00 74 1016.8
20260505180504 66 125 0.0 2.0 0.00 0.00 0.00 74 1016.8
20260505180404 66 122 0.0 2.0 0.00 0.00 0.00 74 1016.8
20260505180304 66 122 0.0 2.0 0.00 0.00 0.00 74 1016.7
20260505180204 66 122 0.0 2.0 0.00 0.00 0.00 74 1016.7
20260505180104 66 122 0.0 2.0 0.00 0.00 0.00 74 1016.8
20260505180004 66 122 0.0 2.0 0.00 0.00 0.00 74 1016.8
20260505175904 66 123 0.0 2.0 0.00 0.00 0.00 74 1016.8
20260505175804 66 123 0.0 2.0 0.00 0.00 0.00 74 1016.7
20260505175704 66 119 0.0 2.0 0.00 0.00 0.00 74 1016.8
20260505175604 66 119 0.0 2.0 0.00 0.00 0.00 74 1016.7
20260505175504 66 119 0.0 2.0 0.00 0.00 0.00 74 1016.8
20260505175404 66 112 0.0 1.0 0.00 0.00 0.00 74 1016.8
20260505175305 66 112 0.0 1.0 0.00 0.00 0.00 74 1016.8
20260505175204 66 112 0.0 1.0 0.00 0.00 0.00 74 1016.7
20260505175104 66 112 0.0 1.0 0.00 0.00 0.00 74 1016.8
20260505175003 66 112 0.0 2.0 0.00 0.00 0.00 73 1016.8
20260505174904 66 112 0.0 4.0 0.00 0.00 0.00 73 1016.7
20260505174803 66 106 0.0 4.0 0.00 0.00 0.00 73 1016.7
20260505174703 66 105 0.0 4.0 0.00 0.00 0.00 73 1016.7
20260505174604 66 105 0.0 4.0 0.00 0.00 0.00 73 1016.7
20260505174504 66 106 0.0 4.0 0.00 0.00 0.00 73 1016.6
20260505174404 66 106 0.0 4.0 0.00 0.00 0.00 73 1016.7
20260505174303 67 107 0.0 4.0 0.00 0.00 0.00 73 1016.7
20260505174203 67 106 0.0 4.0 0.00 0.00 0.00 73 1016.8
20260505174103 67 105 1.0 4.0 0.00 0.00 0.00 73 1016.7
20260505174003 67 104 0.0 4.0 0.00 0.00 0.00 73 1016.7
20260505173903 67 103 0.0 3.0 0.00 0.00 0.00 73 1016.7
20260505173803 67 103 0.0 3.0 0.00 0.00 0.00 72 1016.6
20260505173703 67 104 0.0 3.0 0.00 0.00 0.00 72 1016.6
20260505173603 67 106 0.0 3.0 0.00 0.00 0.00 72 1016.6
20260505173503 67 106 0.0 4.0 0.00 0.00 0.00 72 1016.6
20260505173403 67 106 0.0 4.0 0.00 0.00 0.00 72 1016.6
20260505173303 67 106 0.0 4.0 0.00 0.00 0.00 72 1016.6
20260505173203 67 107 0.0 4.0 0.00 0.00 0.00 72 1016.7
20260505173103 67 108 0.0 4.0 0.00 0.00 0.00 72 1016.8
20260505173003 67 110 0.0 4.0 0.00 0.00 0.00 72 1016.7
20260505172903 67 117 0.0 4.0 0.00 0.00 0.00 72 1016.7
20260505172803 67 111 0.0 4.0 0.00 0.00 0.00 72 1016.5
20260505172703 67 111 0.0 4.0 0.00 0.00 0.00 72 1016.7
20260505172603 67 111 0.0 4.0 0.00 0.00 0.00 72 1016.7
20260505172504 67 113 0.0 3.0 0.00 0.00 0.00 71 1016.8
20260505172403 67 113 0.0 3.0 0.00 0.00 0.00 71 1016.8
20260505172305 67 113 0.0 3.0 0.00 0.00 0.00 72 1016.8
20260505172203 67 113 0.0 3.0 0.00 0.00 0.00 71 1016.8
20260505172103 67 113 0.0 3.0 0.00 0.00 0.00 71 1016.8
20260505172003 67 113 0.0 3.0 0.00 0.00 0.00 71 1016.8
20260505171903 67 107 0.0 3.0 0.00 0.00 0.00 71 1016.9
20260505171803 67 111 0.0 3.0 0.00 0.00 0.00 71 1016.8
20260505171703 67 111 0.0 2.0 0.00 0.00 0.00 71 1016.8
20260505171603 68 110 0.0 2.0 0.00 0.00 0.00 71 1016.8
20260505171503 68 110 0.0 2.0 0.00 0.00 0.00 71 1016.8
20260505171403 68 110 0.0 2.0 0.00 0.00 0.00 71 1016.8
20260505171304 68 110 0.0 2.0 0.00 0.00 0.00 70 1016.8
20260505171203 68 110 0.0 2.0 0.00 0.00 0.00 70 1016.8
20260505171103 68 109 0.0 2.0 0.00 0.00 0.00 70 1016.8
20260505171003 68 109 0.0 2.0 0.00 0.00 0.00 70 1016.8
20260505170903 68 104 0.0 2.0 0.00 0.00 0.00 70 1016.8
20260505170803 68 106 0.0 2.0 0.00 0.00 0.00 70 1016.8
20260505170703 68 106 0.0 2.0 0.00 0.00 0.00 69 1016.8
20260505170603 68 107 0.0 2.0 0.00 0.00 0.00 69 1016.8
20260505170503 68 107 0.0 2.0 0.00 0.00 0.00 69 1016.8
20260505170403 68 107 0.0 2.0 0.00 0.00 0.00 69 1016.7
20260505170303 68 108 0.0 2.0 0.00 0.00 0.00 69 1016.7
20260505170203 68 109 0.0 2.0 0.00 0.00 0.00 69 1016.7
20260505170103 68 109 0.0 2.0 0.00 0.00 0.00 69 1016.7
20260505170003 69 109 0.0 2.0 0.00 0.00 0.00 69 1016.7
20260505165903 69 114 0.0 2.0 0.00 0.00 0.00 69 1016.8
20260505165803 69 112 0.0 2.0 0.00 0.00 0.00 68 1016.7
20260505165703 69 112 0.0 2.0 0.00 0.00 0.00 68 1016.7
20260505165603 69 112 0.0 2.0 0.00 0.00 0.00 68 1016.8
20260505165503 69 114 0.0 2.0 0.00 0.00 0.00 68 1016.7
20260505165403 69 115 0.0 2.0 0.00 0.00 0.00 68 1016.8
20260505165306 69 117 0.0 2.0 0.00 0.00 0.00 68 1016.8
20260505165203 69 120 0.0 2.0 0.00 0.00 0.00 68 1016.8
20260505165103 69 112 0.0 2.0 0.00 0.00 0.00 67 1016.8
20260505165003 69 121 0.0 3.0 0.00 0.00 0.00 67 1016.7
20260505164903 69 123 0.0 3.0 0.00 0.00 0.00 67 1016.7
20260505164803 69 123 0.0 3.0 0.00 0.00 0.00 67 1016.6
20260505164703 69 123 0.0 3.0 0.00 0.00 0.00 67 1016.7
20260505164603 69 122 0.0 3.0 0.00 0.00 0.00 67 1016.7
20260505164503 69 119 0.0 3.0 0.00 0.00 0.00 67 1016.6
20260505164403 69 118 0.0 3.0 0.00 0.00 0.00 67 1016.7
20260505164303 69 115 0.0 3.0 0.00 0.00 0.00 67 1016.6
20260505164203 70 115 0.0 3.0 0.00 0.00 0.00 67 1016.7
20260505164103 70 118 0.0 3.0 0.00 0.00 0.00 67 1016.6
20260505164003 70 112 0.0 3.0 0.00 0.00 0.00 67 1016.7
20260505163903 70 112 0.0 3.0 0.00 0.00 0.00 67 1016.6
20260505163803 70 112 0.0 3.0 0.00 0.00 0.00 67 1016.7
20260505163703 69 106 0.0 3.0 0.00 0.00 0.00 67 1016.6
20260505163603 70 106 0.0 3.0 0.00 0.00 0.00 67 1016.6
20260505163503 69 106 0.0 3.0 0.00 0.00 0.00 67 1016.7
20260505163403 69 105 0.0 3.0 0.00 0.00 0.00 67 1016.7
20260505163303 69 90 0.0 2.0 0.00 0.00 0.00 67 1016.6
20260505163203 69 90 0.0 2.0 0.00 0.00 0.00 67 1016.6
20260505163103 69 90 0.0 2.0 0.00 0.00 0.00 67 1016.7
20260505163003 69 108 0.0 3.0 0.00 0.00 0.00 67 1016.7
20260505162903 69 105 0.0 4.0 0.00 0.00 0.00 67 1016.6
20260505162803 69 105 0.0 4.0 0.00 0.00 0.00 67 1016.7
20260505162703 69 108 0.0 4.0 0.00 0.00 0.00 66 1016.7
20260505162603 69 108 0.0 4.0 0.00 0.00 0.00 66 1016.7
20260505162503 69 108 0.0 4.0 0.00 0.00 0.00 66 1016.6
20260505162403 69 108 0.0 4.0 0.00 0.00 0.00 66 1016.5
20260505162306 69 108 0.0 4.0 0.00 0.00 0.00 66 1016.6
20260505162203 69 114 0.0 4.0 0.00 0.00 0.00 66 1016.6
20260505162103 69 117 0.0 4.0 0.00 0.00 0.00 66 1016.6
20260505162003 69 110 0.0 4.0 0.00 0.00 0.00 65 1016.6
20260505161903 69 270 0.0 2.0 0.00 0.00 0.00 65 1016.7
20260505161803 69 270 0.0 2.0 0.00 0.00 0.00 65 1016.5
20260505161703 69 270 0.0 2.0 0.00 0.00 0.00 65 1016.5
20260505161603 69 270 0.0 2.0 0.00 0.00 0.00 65 1016.6
20260505161503 69 270 0.0 2.0 0.00 0.00 0.00 65 1016.6
20260505161403 70 191 0.0 2.0 0.00 0.00 0.00 65 1016.6
20260505161303 70 168 0.0 2.0 0.00 0.00 0.00 65 1016.6
20260505161203 70 112 0.0 1.0 0.00 0.00 0.00 65 1016.6
20260505161103 70 112 0.0 1.0 0.00 0.00 0.00 65 1016.7
20260505161004 70 112 0.0 1.0 0.00 0.00 0.00 64 1016.6
20260505160904 70 112 0.0 1.0 0.00 0.00 0.00 65 1016.7
20260505160804 70 95 0.0 2.0 0.00 0.00 0.00 64 1016.7
20260505160704 70 95 0.0 2.0 0.00 0.00 0.00 64 1016.6
20260505160604 70 95 0.0 2.0 0.00 0.00 0.00 64 1016.6
20260505160504 70 95 0.0 2.0 0.00 0.00 0.00 64 1016.7
20260505160404 70 326 0.0 2.0 0.00 0.00 0.00 64 1016.6
20260505160304 70 315 0.0 2.0 0.00 0.00 0.00 64 1016.6
20260505160204 70 315 0.0 2.0 0.00 0.00 0.00 64 1016.6
20260505160104 70 315 0.0 2.0 0.00 0.00 0.00 64 1016.6
20260505153304 71 103 0.0 2.0 0.00 0.00 0.00 63 1016.5
20260505153204 71 105 0.0 2.0 0.00 0.00 0.00 63 1016.5
20260505153103 71 104 0.0 2.0 0.00 0.00 0.00 63 1016.5
20260505153004 71 104 0.0 2.0 0.00 0.00 0.00 63 1016.5
20260505152903 71 106 0.0 2.0 0.00 0.00 0.00 63 1016.5
20260505152804 71 112 0.0 2.0 0.00 0.00 0.00 63 1016.5
20260505152704 71 112 0.0 2.0 0.00 0.00 0.00 63 1016.5
20260505152604 71 112 0.0 2.0 0.00 0.00 0.00 64 1016.7
20260505152504 71 112 0.0 2.0 0.00 0.00 0.00 64 1016.6
20260505152403 71 112 0.0 2.0 0.00 0.00 0.00 64 1016.7
20260505152305 71 112 0.0 2.0 0.00 0.00 0.00 64 1016.7
20260505152203 71 112 0.0 2.0 0.00 0.00 0.00 64 1016.6
20260505152103 71 112 0.0 2.0 0.00 0.00 0.00 64 1016.6
20260505152003 71 180 0.0 1.0 0.00 0.00 0.00 63 1016.5
20260505151903 71 243 0.0 1.0 0.00 0.00 0.00 63 1016.6
20260505151803 71 131 0.0 2.0 0.00 0.00 0.00 64 1016.6
20260505151703 71 119 0.0 2.0 0.00 0.00 0.00 64 1016.5
20260505151603 71 113 0.0 2.0 0.00 0.00 0.00 64 1016.5
20260505151503 71 113 0.0 2.0 0.00 0.00 0.00 64 1016.6
20260505151403 71 111 0.0 2.0 0.00 0.00 0.00 64 1016.6
20260505151303 71 115 0.0 3.0 0.00 0.00 0.00 64 1016.6
20260505151203 71 112 0.0 3.0 0.00 0.00 0.00 64 1016.6
20260505151103 71 112 0.0 3.0 0.00 0.00 0.00 64 1016.6
20260505151003 71 110 0.0 3.0 0.00 0.00 0.00 64 1016.6
20260505150903 71 109 0.0 3.0 0.00 0.00 0.00 64 1016.5
20260505150803 71 109 0.0 3.0 0.00 0.00 0.00 64 1016.6
20260505150703 71 103 0.0 3.0 0.00 0.00 0.00 64 1016.6
20260505150603 71 104 0.0 3.0 0.00 0.00 0.00 64 1016.5
20260505150503 71 104 0.0 3.0 0.00 0.00 0.00 64 1016.6
20260505150403 71 108 0.0 3.0 0.00 0.00 0.00 63 1016.6
20260505150303 71 105 0.0 3.0 0.00 0.00 0.00 63 1016.6
20260505150203 71 101 0.0 3.0 0.00 0.00 0.00 63 1016.6
20260505140603 71 89 0.0 4.0 0.00 0.00 0.00 58 1016.8
20260505140503 71 107 0.0 4.0 0.00 0.00 0.00 58 1016.8
20260505140403 71 97 0.0 7.0 0.00 0.00 0.00 58 1016.8
20260505140303 71 97 0.0 7.0 0.00 0.00 0.00 58 1016.8
20260505140203 71 97 0.0 7.0 0.00 0.00 0.00 58 1016.8
20260505130303 71 106 2.0 7.0 0.00 0.00 0.00 58 1017.0
20260505130203 71 105 2.0 7.0 0.00 0.00 0.00 57 1017.1
20260505130103 71 104 2.0 6.0 0.00 0.00 0.00 58 1017.0
20260505125003 71 108 1.0 6.0 0.00 0.00 0.00 58 1017.3
20260505124903 71 110 1.0 6.0 0.00 0.00 0.00 58 1017.2
20260505124803 71 111 2.0 6.0 0.00 0.00 0.00 58 1017.2
20260505124703 71 111 2.0 6.0 0.00 0.00 0.00 57 1017.2
20260505124603 72 112 1.0 6.0 0.00 0.00 0.00 57 1017.1
20260505124503 72 112 1.0 6.0 0.00 0.00 0.00 57 1017.2
20260505124403 72 113 1.0 6.0 0.00 0.00 0.00 57 1017.1
20260505124303 72 113 1.0 6.0 0.00 0.00 0.00 57 1017.2
20260505124203 72 112 1.0 4.0 0.00 0.00 0.00 57 1017.2
20260505124103 72 112 1.0 4.0 0.00 0.00 0.00 57 1017.2
20260505124003 72 113 1.0 4.0 0.00 0.00 0.00 57 1017.3
20260505123903 72 109 1.0 4.0 0.00 0.00 0.00 57 1017.3
20260505123803 72 105 1.0 4.0 0.00 0.00 0.00 57 1017.2
20260505123703 72 100 1.0 6.0 0.00 0.00 0.00 57 1017.3
20260505123603 72 98 1.0 6.0 0.00 0.00 0.00 57 1017.3
20260505123503 72 101 1.0 6.0 0.00 0.00 0.00 57 1017.3
20260505123403 72 99 1.0 6.0 0.00 0.00 0.00 57 1017.3
20260505123303 72 98 1.0 6.0 0.00 0.00 0.00 57 1017.3
20260505123203 72 98 1.0 6.0 0.00 0.00 0.00 57 1017.2
20260505123103 72 101 1.0 6.0 0.00 0.00 0.00 57 1017.3
20260505123003 72 101 1.0 6.0 0.00 0.00 0.00 57 1017.4
20260505122903 72 104 1.0 6.0 0.00 0.00 0.00 57 1017.4
20260505122803 72 104 1.0 6.0 0.00 0.00 0.00 57 1017.2
20260505122703 72 109 1.0 4.0 0.00 0.00 0.00 57 1017.2
20260505122603 72 111 1.0 4.0 0.00 0.00 0.00 57 1017.1
20260505122503 72 111 1.0 4.0 0.00 0.00 0.00 57 1017.2
20260505122403 72 109 0.0 3.0 0.00 0.00 0.00 57 1017.2
20260505122305 72 113 1.0 7.0 0.00 0.00 0.00 57 1017.1
20260505122203 72 109 1.0 7.0 0.00 0.00 0.00 57 1017.2
20260505122103 72 102 1.0 7.0 0.00 0.00 0.00 57 1017.2
20260505122003 72 101 1.0 7.0 0.00 0.00 0.00 57 1017.3
20260505121903 72 99 1.0 7.0 0.00 0.00 0.00 57 1017.2
20260505121803 72 98 1.0 7.0 0.00 0.00 0.00 57 1017.2
20260505121703 72 101 1.0 7.0 0.00 0.00 0.00 57 1017.4
20260505121603 72 103 1.0 7.0 0.00 0.00 0.00 57 1017.4
20260505121503 72 104 1.0 7.0 0.00 0.00 0.00 56 1017.4
20260505121403 72 104 1.0 7.0 0.00 0.00 0.00 56 1017.4
20260505121303 72 107 1.0 7.0 0.00 0.00 0.00 57 1017.4
20260505121203 72 111 1.0 7.0 0.00 0.00 0.00 57 1017.4
20260505121103 72 116 1.0 7.0 0.00 0.00 0.00 57 1017.3
20260505121003 72 114 1.0 7.0 0.00 0.00 0.00 57 1017.4
20260505120903 72 114 1.0 7.0 0.00 0.00 0.00 56 1017.4
20260505120803 72 114 1.0 7.0 0.00 0.00 0.00 56 1017.4
20260505120703 72 114 1.0 7.0 0.00 0.00 0.00 56 1017.3
20260505120603 72 115 1.0 7.0 0.00 0.00 0.00 56 1017.4
20260505120503 72 116 1.0 7.0 0.00 0.00 0.00 56 1017.5
20260505120403 72 117 1.0 7.0 0.00 0.00 0.00 56 1017.5
20260505120303 72 116 1.0 7.0 0.00 0.00 0.00 57 1017.4
20260505120203 72 113 1.0 7.0 0.00 0.00 0.00 57 1017.4
20260505120103 72 107 1.0 7.0 0.00 0.00 0.00 57 1017.3
20260505120004 72 110 1.0 7.0 0.00 0.00 0.00 57 1017.5
20260505115903 72 110 1.0 7.0 0.00 0.00 0.00 57 1017.4
20260505115803 72 107 1.0 7.0 0.00 0.00 0.00 57 1017.3
20260505115703 72 106 1.0 7.0 0.00 0.00 0.00 57 1017.3
20260505115603 72 106 1.0 7.0 0.00 0.00 0.00 57 1017.3
20260505115503 72 105 1.0 7.0 0.00 0.00 0.00 57 1017.3
20260505115403 72 101 1.0 5.0 0.00 0.00 0.00 57 1017.4
20260505115305 72 100 1.0 5.0 0.00 0.00 0.00 57 1017.5
20260505115203 72 95 1.0 5.0 0.00 0.00 0.00 57 1017.4
20260505115103 73 98 1.0 5.0 0.00 0.00 0.00 57 1017.5
20260505115003 73 99 1.0 5.0 0.00 0.00 0.00 57 1017.5
20260505114903 73 107 1.0 5.0 0.00 0.00 0.00 57 1017.4
20260505114803 73 125 1.0 5.0 0.00 0.00 0.00 57 1017.5
20260505114703 73 132 1.0 5.0 0.00 0.00 0.00 57 1017.5
20260505114603 73 115 1.0 6.0 0.00 0.00 0.00 57 1017.5
20260505114503 73 110 1.0 6.0 0.00 0.00 0.00 57 1017.4
20260505114403 73 111 1.0 6.0 0.00 0.00 0.00 57 1017.5
20260505114303 73 112 1.0 6.0 0.00 0.00 0.00 58 1017.5
20260505114203 73 112 1.0 6.0 0.00 0.00 0.00 57 1017.4
20260505114103 73 114 1.0 6.0 0.00 0.00 0.00 58 1017.4
20260505114003 73 110 1.0 6.0 0.00 0.00 0.00 58 1017.5
20260505113903 73 109 1.0 6.0 0.00 0.00 0.00 58 1017.4
20260505113803 73 109 2.0 6.0 0.00 0.00 0.00 58 1017.4
20260505113703 73 109 2.0 6.0 0.00 0.00 0.00 58 1017.5
20260505113603 73 109 2.0 6.0 0.00 0.00 0.00 58 1017.6
20260505113503 73 110 1.0 6.0 0.00 0.00 0.00 58 1017.6
20260505113403 73 109 1.0 6.0 0.00 0.00 0.00 58 1017.5
20260505113303 73 108 1.0 6.0 0.00 0.00 0.00 58 1017.5
20260505113203 73 108 1.0 6.0 0.00 0.00 0.00 58 1017.5
20260505113103 73 108 1.0 6.0 0.00 0.00 0.00 58 1017.5
20260505113003 73 112 1.0 6.0 0.00 0.00 0.00 59 1017.5
20260505112903 73 110 1.0 5.0 0.00 0.00 0.00 59 1017.5
20260505112803 73 109 1.0 5.0 0.00 0.00 0.00 60 1017.6
20260505112703 72 107 1.0 5.0 0.00 0.00 0.00 60 1017.5
20260505112604 72 104 1.0 5.0 0.00 0.00 0.00 60 1017.6
20260505112504 72 106 1.0 5.0 0.00 0.00 0.00 60 1017.6
20260505112404 72 108 1.0 5.0 0.00 0.00 0.00 60 1017.6
20260505112305 72 108 1.0 5.0 0.00 0.00 0.00 61 1017.6
20260505112204 72 107 1.0 5.0 0.00 0.00 0.00 61 1017.7
20260505112104 72 107 1.0 5.0 0.00 0.00 0.00 61 1017.6
20260505112004 72 106 1.0 5.0 0.00 0.00 0.00 61 1017.7
20260505111904 72 106 2.0 5.0 0.00 0.00 0.00 61 1017.7
20260505111804 72 105 1.0 5.0 0.00 0.00 0.00 61 1017.6
20260505111704 72 108 2.0 5.0 0.00 0.00 0.00 62 1017.7
20260505111604 72 109 2.0 5.0 0.00 0.00 0.00 62 1017.6
20260505111504 72 109 2.0 5.0 0.00 0.00 0.00 62 1017.6
20260505111404 72 109 2.0 5.0 0.00 0.00 0.00 61 1017.7
20260505111304 72 109 2.0 5.0 0.00 0.00 0.00 62 1017.6
20260505111204 72 110 1.0 5.0 0.00 0.00 0.00 62 1017.6
20260505111104 71 110 2.0 5.0 0.00 0.00 0.00 62 1017.6
20260505111004 71 110 2.0 5.0 0.00 0.00 0.00 62 1017.6
20260505110904 71 111 2.0 6.0 0.00 0.00 0.00 61 1017.7
20260505110804 71 113 2.0 6.0 0.00 0.00 0.00 62 1017.6
20260505110704 71 111 2.0 6.0 0.00 0.00 0.00 62 1017.6
20260505110604 71 112 2.0 6.0 0.00 0.00 0.00 62 1017.7
20260505110504 71 108 2.0 6.0 0.00 0.00 0.00 62 1017.6
20260505110404 71 110 2.0 6.0 0.00 0.00 0.00 62 1017.6
20260505110304 71 109 2.0 6.0 0.00 0.00 0.00 62 1017.6
20260505110204 71 109 2.0 6.0 0.00 0.00 0.00 62 1017.6
20260505110104 71 107 2.0 6.0 0.00 0.00 0.00 62 1017.5
20260505102203 73 112 1.0 8.0 0.00 0.00 0.00 61 1017.8
20260505102103 73 113 1.0 8.0 0.00 0.00 0.00 61 1017.7
20260505102004 73 115 1.0 8.0 0.00 0.00 0.00 60 1017.7
20260505101903 73 115 1.0 8.0 0.00 0.00 0.00 60 1017.7
20260505101803 73 114 1.0 8.0 0.00 0.00 0.00 60 1017.8
20260505101704 73 114 1.0 8.0 0.00 0.00 0.00 60 1017.8
20260505101603 73 114 1.0 8.0 0.00 0.00 0.00 60 1017.8
20260505101503 73 115 1.0 8.0 0.00 0.00 0.00 60 1017.9
20260505101403 74 115 1.0 6.0 0.00 0.00 0.00 60 1017.8
20260505101303 73 113 1.0 5.0 0.00 0.00 0.00 60 1017.8
20260505101203 73 109 1.0 5.0 0.00 0.00 0.00 60 1017.8
20260505101103 73 107 1.0 5.0 0.00 0.00 0.00 60 1017.7
20260505101003 73 104 1.0 5.0 0.00 0.00 0.00 60 1017.8
20260505100903 73 103 1.0 5.0 0.00 0.00 0.00 60 1017.7
20260505100803 73 108 1.0 4.0 0.00 0.00 0.00 60 1017.8
20260505100703 73 109 1.0 4.0 0.00 0.00 0.00 60 1017.8
20260505100603 73 110 1.0 4.0 0.00 0.00 0.00 60 1017.9
20260505100503 73 110 1.0 5.0 0.00 0.00 0.00 60 1017.9
20260505100403 73 110 1.0 6.0 0.00 0.00 0.00 60 1017.8
20260505100303 73 111 1.0 6.0 0.00 0.00 0.00 60 1017.8
20260505100203 73 111 1.0 6.0 0.00 0.00 0.00 60 1017.8
20260505100003 73 111 1.0 6.0 0.00 0.00 0.00 60 1017.8
20260505095903 73 111 1.0 6.0 0.00 0.00 0.00 60 1017.8
20260505095803 73 108 1.0 6.0 0.00 0.00 0.00 60 1017.8
20260505095703 73 107 1.0 6.0 0.00 0.00 0.00 60 1017.8
20260505095603 73 106 1.0 6.0 0.00 0.00 0.00 60 1017.9
20260505095503 73 106 1.0 6.0 0.00 0.00 0.00 60 1017.9
20260505095403 73 107 1.0 5.0 0.00 0.00 0.00 60 1017.8
20260505095304 73 106 1.0 5.0 0.00 0.00 0.00 60 1017.9
20260505095203 73 106 1.0 5.0 0.00 0.00 0.00 60 1017.9
20260505095103 73 108 1.0 5.0 0.00 0.00 0.00 60 1017.9
20260505095003 73 108 1.0 5.0 0.00 0.00 0.00 60 1017.9
20260505094903 73 110 1.0 5.0 0.00 0.00 0.00 60 1018.0
20260505094803 73 112 1.0 5.0 0.00 0.00 0.00 60 1017.9
20260505094703 73 114 1.0 5.0 0.00 0.00 0.00 60 1017.9
20260505094603 73 116 1.0 5.0 0.00 0.00 0.00 60 1017.9
20260505094503 73 115 1.0 5.0 0.00 0.00 0.00 60 1017.9
20260505094403 73 114 1.0 5.0 0.00 0.00 0.00 60 1017.9
20260505094303 73 116 1.0 5.0 0.00 0.00 0.00 60 1017.9
20260505094203 73 115 1.0 5.0 0.00 0.00 0.00 60 1017.9
20260505094103 73 112 1.0 4.0 0.00 0.00 0.00 60 1017.9
20260505094003 73 113 1.0 4.0 0.00 0.00 0.00 60 1017.9
20260505093903 74 109 1.0 4.0 0.00 0.00 0.00 60 1017.9
20260505093803 73 105 1.0 4.0 0.00 0.00 0.00 60 1017.9
20260505093703 73 103 0.0 3.0 0.00 0.00 0.00 60 1017.9
20260505093603 74 103 0.0 3.0 0.00 0.00 0.00 60 1017.9
20260505093503 74 104 0.0 3.0 0.00 0.00 0.00 60 1017.9
20260505093403 74 104 0.0 3.0 0.00 0.00 0.00 60 1018.0
20260505093303 74 105 0.0 3.0 0.00 0.00 0.00 60 1017.9
20260505093203 74 108 0.0 3.0 0.00 0.00 0.00 60 1017.9
20260505093103 73 112 0.0 3.0 0.00 0.00 0.00 60 1017.9
20260505093003 73 111 0.0 4.0 0.00 0.00 0.00 61 1017.9
20260505092903 73 109 0.0 4.0 0.00 0.00 0.00 61 1018.0
20260505092803 73 106 1.0 4.0 0.00 0.00 0.00 61 1017.9
20260505092703 73 106 1.0 4.0 0.00 0.00 0.00 60 1017.9
20260505092603 73 106 1.0 4.0 0.00 0.00 0.00 61 1017.9
20260505092503 73 106 1.0 4.0 0.00 0.00 0.00 61 1017.9
20260505092403 73 106 1.0 4.0 0.00 0.00 0.00 61 1017.9
20260505092305 73 106 1.0 4.0 0.00 0.00 0.00 61 1017.9
20260505092203 73 106 1.0 4.0 0.00 0.00 0.00 61 1017.9
20260505092103 73 106 1.0 4.0 0.00 0.00 0.00 61 1017.9
20260505092003 73 106 1.0 4.0 0.00 0.00 0.00 61 1017.9
20260505091903 73 105 1.0 4.0 0.00 0.00 0.00 61 1017.9
20260505091803 73 107 0.0 4.0 0.00 0.00 0.00 61 1017.9
20260505091703 73 105 0.0 3.0 0.00 0.00 0.00 61 1017.9
20260505091603 73 109 0.0 2.0 0.00 0.00 0.00 61 1018.0
20260505091503 73 107 0.0 2.0 0.00 0.00 0.00 61 1017.9
20260505091404 73 108 0.0 3.0 0.00 0.00 0.00 61 1017.9
20260505091304 73 101 0.0 3.0 0.00 0.00 0.00 61 1018.1
20260505091204 73 98 0.0 3.0 0.00 0.00 0.00 61 1018.1
20260505091104 73 97 0.0 3.0 0.00 0.00 0.00 61 1018.1
20260505091004 73 96 0.0 3.0 0.00 0.00 0.00 61 1018.1
20260505090904 73 97 0.0 3.0 0.00 0.00 0.00 61 1018.1
20260505090804 73 95 0.0 3.0 0.00 0.00 0.00 61 1018.2
20260505090704 73 95 0.0 3.0 0.00 0.00 0.00 61 1018.1
20260505090604 73 96 0.0 3.0 0.00 0.00 0.00 61 1018.1
20260505090504 73 95 0.0 3.0 0.00 0.00 0.00 61 1018.1
20260505090404 73 83 0.0 2.0 0.00 0.00 0.00 61 1018.2
20260505090304 73 89 0.0 2.0 0.00 0.00 0.00 61 1018.1
20260505090204 73 89 0.0 2.0 0.00 0.00 0.00 61 1018.0
20260505090104 73 89 0.0 2.0 0.00 0.00 0.00 61 1018.0
20260505090004 73 89 0.0 2.0 0.00 0.00 0.00 62 1018.0
20260505085904 73 92 0.0 2.0 0.00 0.00 0.00 62 1018.0
20260505085804 73 103 0.0 4.0 0.00 0.00 0.00 62 1018.1
20260505085704 73 105 0.0 4.0 0.00 0.00 0.00 62 1018.0
20260505085604 73 106 0.0 4.0 0.00 0.00 0.00 62 1018.0
20260505085504 73 106 0.0 4.0 0.00 0.00 0.00 62 1018.1
20260505085404 73 106 0.0 4.0 0.00 0.00 0.00 62 1018.0
20260505085305 73 107 0.0 4.0 0.00 0.00 0.00 62 1018.0
20260505085204 73 108 0.0 4.0 0.00 0.00 0.00 62 1018.0
20260505085104 73 113 1.0 4.0 0.00 0.00 0.00 62 1018.0
20260505085004 73 112 1.0 4.0 0.00 0.00 0.00 62 1018.1
20260505084904 73 112 1.0 4.0 0.00 0.00 0.00 62 1018.2
20260505084804 73 111 1.0 4.0 0.00 0.00 0.00 62 1018.0
20260505084704 73 105 1.0 4.0 0.00 0.00 0.00 63 1018.1
20260505084604 73 105 1.0 4.0 0.00 0.00 0.00 63 1018.0
20260505084504 73 104 1.0 4.0 0.00 0.00 0.00 62 1018.1
20260505084404 72 104 1.0 6.0 0.00 0.00 0.00 63 1018.1
20260505084304 72 104 1.0 6.0 0.00 0.00 0.00 62 1018.1
20260505084204 72 104 1.0 6.0 0.00 0.00 0.00 63 1018.0
20260505084104 72 99 1.0 6.0 0.00 0.00 0.00 62 1018.0
20260505084004 72 99 1.0 6.0 0.00 0.00 0.00 62 1018.1
20260505083904 72 101 1.0 6.0 0.00 0.00 0.00 62 1018.0
20260505083804 72 101 1.0 6.0 0.00 0.00 0.00 62 1018.1
20260505083704 72 103 1.0 6.0 0.00 0.00 0.00 62 1018.1
20260505083604 73 103 1.0 6.0 0.00 0.00 0.00 63 1018.1
20260505083504 73 103 1.0 6.0 0.00 0.00 0.00 63 1018.0
20260505083404 73 103 1.0 4.0 0.00 0.00 0.00 63 1018.0
20260505083304 73 103 1.0 4.0 0.00 0.00 0.00 63 1018.1
20260505083204 73 103 1.0 4.0 0.00 0.00 0.00 63 1018.2
20260505083104 73 104 1.0 4.0 0.00 0.00 0.00 63 1018.1
20260505083004 73 105 1.0 4.0 0.00 0.00 0.00 63 1018.0
20260505082904 73 102 1.0 4.0 0.00 0.00 0.00 63 1017.9
20260505082803 73 105 1.0 4.0 0.00 0.00 0.00 63 1017.9
20260505082703 73 105 1.0 4.0 0.00 0.00 0.00 63 1018.0
20260505082604 73 107 1.0 4.0 0.00 0.00 0.00 63 1018.1
20260505082503 73 108 1.0 4.0 0.00 0.00 0.00 63 1018.0
20260505082403 73 107 1.0 4.0 0.00 0.00 0.00 63 1018.0
20260505082304 73 107 1.0 4.0 0.00 0.00 0.00 63 1017.9
20260505082203 73 109 1.0 5.0 0.00 0.00 0.00 63 1018.0
20260505082103 73 109 1.0 5.0 0.00 0.00 0.00 63 1018.0
20260505082003 73 109 1.0 5.0 0.00 0.00 0.00 63 1018.0
20260505081903 73 110 1.0 5.0 0.00 0.00 0.00 63 1018.0
20260505081803 73 106 1.0 5.0 0.00 0.00 0.00 63 1018.1
20260505081703 73 105 1.0 5.0 0.00 0.00 0.00 64 1018.1
20260505081603 73 102 1.0 5.0 0.00 0.00 0.00 63 1018.1
20260505081503 73 105 1.0 5.0 0.00 0.00 0.00 63 1018.1
20260505081403 73 106 1.0 5.0 0.00 0.00 0.00 63 1018.1
20260505081303 73 106 1.0 5.0 0.00 0.00 0.00 63 1018.1
20260505081203 73 105 1.0 5.0 0.00 0.00 0.00 63 1018.1
20260505081103 73 105 1.0 5.0 0.00 0.00 0.00 64 1018.0
20260505081003 73 105 1.0 5.0 0.00 0.00 0.00 64 1018.1
20260505080903 73 106 1.0 5.0 0.00 0.00 0.00 64 1018.1
20260505080803 73 87 1.0 14.0 0.00 0.00 0.00 64 1018.1
20260505080703 73 90 1.0 14.0 0.00 0.00 0.00 64 1018.1
20260505080603 73 96 1.0 14.0 0.00 0.00 0.00 64 1018.1
20260505080503 73 93 1.0 14.0 0.00 0.00 0.00 64 1018.1
20260505080403 72 81 1.0 14.0 0.00 0.00 0.00 65 1018.1
20260505080303 72 83 1.0 14.0 0.00 0.00 0.00 65 1018.1
20260505080203 72 91 1.0 14.0 0.00 0.00 0.00 65 1018.0
20260505080103 72 91 1.0 14.0 0.00 0.00 0.00 65 1018.1
20260505080003 72 83 1.0 14.0 0.00 0.00 0.00 65 1018.1
20260505075903 72 92 2.0 14.0 0.00 0.00 0.00 65 1018.0
20260505075803 72 102 2.0 14.0 0.00 0.00 0.00 65 1018.1
20260505075703 72 95 2.0 14.0 0.00 0.00 0.00 65 1018.0
20260505075603 72 96 2.0 14.0 0.00 0.00 0.00 64 1018.0
20260505075503 72 99 2.0 14.0 0.00 0.00 0.00 64 1018.0
20260505075403 72 100 2.0 14.0 0.00 0.00 0.00 64 1018.0
20260505075304 72 100 2.0 14.0 0.00 0.00 0.00 64 1018.0
20260505075203 73 100 2.0 14.0 0.00 0.00 0.00 64 1018.0
20260505075103 73 101 2.0 14.0 0.00 0.00 0.00 64 1018.0
20260505075003 73 109 1.0 14.0 0.00 0.00 0.00 64 1017.9
20260505074903 73 105 1.0 14.0 0.00 0.00 0.00 64 1018.0
20260505074803 73 103 1.0 14.0 0.00 0.00 0.00 64 1017.9
20260505074703 73 113 1.0 6.0 0.00 0.00 0.00 64 1017.9
20260505074603 73 113 1.0 4.0 0.00 0.00 0.00 64 1017.9
20260505074503 73 111 0.0 4.0 0.00 0.00 0.00 64 1017.9
20260505074403 73 106 0.0 4.0 0.00 0.00 0.00 64 1018.0
20260505074303 73 104 0.0 4.0 0.00 0.00 0.00 64 1018.0
20260505074203 73 105 1.0 4.0 0.00 0.00 0.00 64 1017.9
20260505074103 73 104 1.0 4.0 0.00 0.00 0.00 64 1017.8
20260505074003 73 104 1.0 4.0 0.00 0.00 0.00 64 1017.9
20260505073903 72 105 1.0 5.0 0.00 0.00 0.00 64 1017.9
20260505073803 72 107 1.0 5.0 0.00 0.00 0.00 64 1017.9
20260505073703 72 108 1.0 5.0 0.00 0.00 0.00 64 1017.8
20260505073603 72 108 1.0 5.0 0.00 0.00 0.00 64 1017.8
20260505073503 72 108 1.0 5.0 0.00 0.00 0.00 64 1017.8
20260505073403 72 110 1.0 5.0 0.00 0.00 0.00 63 1017.9
20260505073303 72 109 1.0 5.0 0.00 0.00 0.00 63 1018.0
20260505073203 72 109 1.0 5.0 0.00 0.00 0.00 63 1018.0
20260505073103 72 96 1.0 14.0 0.00 0.00 0.00 63 1018.0
20260505073003 72 92 1.0 14.0 0.00 0.00 0.00 63 1018.0
20260505072903 72 89 1.0 14.0 0.00 0.00 0.00 63 1017.8
20260505072803 72 89 1.0 14.0 0.00 0.00 0.00 63 1017.9
20260505072703 72 93 1.0 14.0 0.00 0.00 0.00 63 1018.0
20260505072603 72 94 1.0 14.0 0.00 0.00 0.00 63 1018.1
20260505072503 72 88 1.0 14.0 0.00 0.00 0.00 63 1018.1
20260505072403 72 83 1.0 14.0 0.00 0.00 0.00 63 1018.0
20260505072305 72 81 1.0 14.0 0.00 0.00 0.00 63 1018.0
20260505072203 72 90 1.0 14.0 0.00 0.00 0.00 63 1018.0
20260505072103 72 107 1.0 3.0 0.00 0.00 0.00 63 1018.0
20260505072003 72 108 1.0 3.0 0.00 0.00 0.00 64 1018.0
20260505071903 72 106 1.0 5.0 0.00 0.00 0.00 64 1017.9
20260505071803 72 106 1.0 5.0 0.00 0.00 0.00 64 1018.0
20260505071703 72 89 1.0 14.0 0.00 0.00 0.00 64 1018.0
20260505071603 72 63 1.0 14.0 0.00 0.00 0.00 64 1018.0
20260505071503 72 63 1.0 14.0 0.00 0.00 0.00 63 1018.0
20260505071403 72 62 1.0 14.0 0.00 0.00 0.00 63 1017.9
20260505071303 72 60 1.0 14.0 0.00 0.00 0.00 63 1018.0
20260505071203 72 58 1.0 14.0 0.00 0.00 0.00 63 1018.0
20260505071103 72 67 1.0 14.0 0.00 0.00 0.00 63 1018.1
20260505071003 72 74 1.0 14.0 0.00 0.00 0.00 63 1018.1
20260505070903 72 65 1.0 14.0 0.00 0.00 0.00 63 1018.1
20260505070803 72 61 1.0 14.0 0.00 0.00 0.00 63 1018.1
20260505070703 72 88 1.0 14.0 0.00 0.00 0.00 63 1018.0
20260505070603 72 111 0.0 4.0 0.00 0.00 0.00 64 1018.1
20260505070503 72 111 0.0 4.0 0.00 0.00 0.00 63 1018.0
20260505070403 72 110 1.0 4.0 0.00 0.00 0.00 63 1018.0
20260505070303 72 110 1.0 4.0 0.00 0.00 0.00 63 1018.0
20260505070203 72 110 1.0 4.0 0.00 0.00 0.00 63 1017.9
20260505070003 72 108 1.0 4.0 0.00 0.00 0.00 63 1017.9
20260505065903 72 109 1.0 4.0 0.00 0.00 0.00 63 1017.9
20260505065803 72 109 1.0 5.0 0.00 0.00 0.00 63 1017.9
20260505065703 72 109 1.0 5.0 0.00 0.00 0.00 62 1017.9
20260505065603 72 110 1.0 5.0 0.00 0.00 0.00 62 1018.0
20260505065503 72 111 1.0 5.0 0.00 0.00 0.00 63 1017.8
20260505065403 73 111 1.0 5.0 0.00 0.00 0.00 62 1017.9
20260505065304 73 105 2.0 14.0 0.00 0.00 0.00 62 1017.9
20260505065203 73 105 2.0 14.0 0.00 0.00 0.00 62 1018.0
20260505065103 73 105 2.0 14.0 0.00 0.00 0.00 62 1018.1
20260505065004 73 105 2.0 14.0 0.00 0.00 0.00 61 1018.1
20260505064904 73 104 2.0 14.0 0.00 0.00 0.00 61 1018.0
20260505064804 74 102 2.0 14.0 0.00 0.00 0.00 61 1018.0
20260505064704 74 100 1.0 14.0 0.00 0.00 0.00 61 1018.0
20260505064604 74 98 1.0 14.0 0.00 0.00 0.00 61 1018.0
20260505064504 74 96 1.0 14.0 0.00 0.00 0.00 61 1018.0
20260505064404 74 95 1.0 14.0 0.00 0.00 0.00 61 1018.0
20260505064304 74 104 1.0 5.0 0.00 0.00 0.00 61 1018.0
20260505064204 74 104 1.0 5.0 0.00 0.00 0.00 61 1018.0
20260505064104 74 105 1.0 5.0 0.00 0.00 0.00 61 1018.0
20260505064004 74 105 1.0 5.0 0.00 0.00 0.00 61 1018.0
20260505063904 74 106 1.0 5.0 0.00 0.00 0.00 61 1018.0
20260505063804 74 107 1.0 5.0 0.00 0.00 0.00 61 1018.1
20260505063704 74 109 1.0 5.0 0.00 0.00 0.00 61 1018.1
20260505063604 74 109 1.0 5.0 0.00 0.00 0.00 61 1018.1
20260505063504 74 110 1.0 5.0 0.00 0.00 0.00 61 1017.9
20260505063404 74 111 1.0 4.0 0.00 0.00 0.00 61 1017.8
20260505063304 74 111 0.0 4.0 0.00 0.00 0.00 61 1017.9
20260505063204 74 111 0.0 4.0 0.00 0.00 0.00 61 1017.9
20260505063104 74 111 0.0 3.0 0.00 0.00 0.00 61 1017.9
20260505063004 74 110 0.0 3.0 0.00 0.00 0.00 60 1017.9
20260505062904 74 110 0.0 3.0 0.00 0.00 0.00 60 1018.0
20260505062804 74 110 0.0 3.0 0.00 0.00 0.00 60 1018.0
20260505062704 74 105 0.0 1.0 0.00 0.00 0.00 60 1018.0
20260505062604 74 106 0.0 3.0 0.00 0.00 0.00 60 1018.0
20260505062504 74 106 0.0 3.0 0.00 0.00 0.00 59 1018.0
20260505062404 74 100 0.0 3.0 0.00 0.00 0.00 59 1017.9
20260505062304 74 102 0.0 3.0 0.00 0.00 0.00 59 1018.0
20260505062204 74 101 0.0 3.0 0.00 0.00 0.00 59 1018.0
20260505062104 74 105 1.0 4.0 0.00 0.00 0.00 58 1018.0
20260505062004 74 105 1.0 4.0 0.00 0.00 0.00 58 1018.1
20260505061904 74 105 1.0 4.0 0.00 0.00 0.00 58 1018.1
20260505061804 74 105 1.0 4.0 0.00 0.00 0.00 58 1018.1
20260505061704 74 106 1.0 4.0 0.00 0.00 0.00 58 1018.0
20260505061604 74 106 0.0 4.0 0.00 0.00 0.00 58 1018.0
20260505061504 74 107 0.0 4.0 0.00 0.00 0.00 58 1018.1
20260505061404 74 115 0.0 4.0 0.00 0.00 0.00 59 1018.0
20260505061304 74 116 0.0 4.0 0.00 0.00 0.00 59 1018.1
20260505061204 74 116 0.0 4.0 0.00 0.00 0.00 60 1018.2
20260505061103 74 168 0.0 1.0 0.00 0.00 0.00 60 1018.2
20260505061004 74 168 0.0 1.0 0.00 0.00 0.00 60 1018.2
20260505060903 74 168 0.0 1.0 0.00 0.00 0.00 60 1018.2
20260505060803 74 168 0.0 1.0 0.00 0.00 0.00 60 1018.1
20260505060703 73 112 0.0 1.0 0.00 0.00 0.00 60 1018.1
20260505060603 73 112 0.0 1.0 0.00 0.00 0.00 61 1018.2
20260505060503 73 112 0.0 1.0 0.00 0.00 0.00 61 1018.2
20260505060403 73 112 0.0 1.0 0.00 0.00 0.00 61 1018.2
20260505060303 73 112 0.0 1.0 0.00 0.00 0.00 62 1018.1
20260505060203 73 0 0.0 0.0 0.00 0.00 0.00 62 1017.9
20260505060103 72 0 0.0 0.0 0.00 0.00 0.00 62 1018.1
20260505060004 72 0 0.0 0.0 0.00 0.00 0.00 62 1018.0
20260505055903 72 0 0.0 0.0 0.00 0.00 0.00 62 1018.0
20260505055803 72 0 0.0 0.0 0.00 0.00 0.00 62 1018.1
20260505055703 72 0 0.0 0.0 0.00 0.00 0.00 62 1018.1
20260505055603 72 0 0.0 0.0 0.00 0.00 0.00 62 1018.1
20260505055504 72 0 0.0 0.0 0.00 0.00 0.00 62 1018.0
20260505055403 72 0 0.0 0.0 0.00 0.00 0.00 63 1018.0
20260505055304 71 0 0.0 0.0 0.00 0.00 0.00 63 1018.0
20260505055203 71 0 0.0 0.0 0.00 0.00 0.00 63 1018.0
20260505055103 71 0 0.0 0.0 0.00 0.00 0.00 63 1018.1
20260505055003 71 0 0.0 0.0 0.00 0.00 0.00 63 1018.1
20260505054903 71 0 0.0 0.0 0.00 0.00 0.00 64 1018.1
20260505054803 70 0 0.0 0.0 0.00 0.00 0.00 64 1018.0
20260505054703 70 0 0.0 0.0 0.00 0.00 0.00 64 1018.1
20260505054603 70 0 0.0 0.0 0.00 0.00 0.00 64 1018.0
20260505054503 70 0 0.0 0.0 0.00 0.00 0.00 64 1017.9
20260505054403 70 0 0.0 0.0 0.00 0.00 0.00 64 1017.9
20260505054303 69 0 0.0 0.0 0.00 0.00 0.00 64 1018.0
20260505054203 69 0 0.0 0.0 0.00 0.00 0.00 64 1017.9
20260505054103 69 0 0.0 0.0 0.00 0.00 0.00 64 1017.9
20260505054003 69 0 0.0 0.0 0.00 0.00 0.00 65 1017.9
20260505053903 69 0 0.0 0.0 0.00 0.00 0.00 64 1017.9
20260505053803 68 0 0.0 0.0 0.00 0.00 0.00 65 1018.0
20260505053703 68 0 0.0 0.0 0.00 0.00 0.00 65 1017.9
20260505053603 68 0 0.0 0.0 0.00 0.00 0.00 65 1017.9
20260505053503 67 0 0.0 0.0 0.00 0.00 0.00 65 1017.9
20260505053403 67 0 0.0 0.0 0.00 0.00 0.00 65 1017.8
20260505053303 67 0 0.0 0.0 0.00 0.00 0.00 65 1017.8
20260505053203 66 0 0.0 0.0 0.00 0.00 0.00 65 1017.8
20260505053103 66 0 0.0 0.0 0.00 0.00 0.00 65 1017.8
20260505053003 66 0 0.0 0.0 0.00 0.00 0.00 65 1017.9
20260505052903 65 0 0.0 0.0 0.00 0.00 0.00 65 1017.9